Wetterdaten: Freitag, 06.09.2013
Datum Zeit Temp. Aussen +5cm Feuchte Auss Luftdruck Regen Sonnenschein Regendauer UV Solar Windben
06.09.2013 00:00 22,8 C 20,6 C 71 % 1010,0 hPa 0,0 l/m 0 min 0 min 0,0 UV-I 0 W/m 2,6 km/h (1 Bft)
06.09.2013 00:02 22,8 C 20,6 C 71 % 1010,0 hPa 0,0 l/m 0 min 0 min 0,0 UV-I 0 W/m 0,0 km/h (0 Bft)
06.09.2013 00:06 22,6 C 20,0 C 72 % 1010,0 hPa 0,0 l/m 0 min 0 min 0,0 UV-I 0 W/m 0,0 km/h (0 Bft)
06.09.2013 00:08 22,6 C 20,0 C 72 % 1010,0 hPa 0,0 l/m 0 min 0 min 0,0 UV-I 0 W/m 0,0 km/h (0 Bft)
06.09.2013 00:10 22,5 C 20,0 C 72 % 1010,0 hPa 0,0 l/m 0 min 0 min 0,0 UV-I 0 W/m 2,6 km/h (1 Bft)
06.09.2013 00:12 22,4 C 20,0 C 72 % 1010,0 hPa 0,0 l/m 0 min 0 min 0,0 UV-I 0 W/m 0,0 km/h (0 Bft)
06.09.2013 00:14 22,4 C 20,0 C 72 % 1010,0 hPa 0,0 l/m 0 min 0 min 0,0 UV-I 0 W/m 0,0 km/h (0 Bft)
06.09.2013 00:16 22,3 C 20,0 C 73 % 1009,9 hPa 0,0 l/m 0 min 0 min 0,0 UV-I 0 W/m 0,0 km/h (0 Bft)
06.09.2013 00:18 22,2 C 19,4 C 73 % 1009,9 hPa 0,0 l/m 0 min 0 min 0,0 UV-I 0 W/m 0,0 km/h (0 Bft)
06.09.2013 00:20 22,1 C 19,4 C 73 % 1009,9 hPa 0,0 l/m 0 min 0 min 0,0 UV-I 0 W/m 0,0 km/h (0 Bft)
06.09.2013 00:22 22,1 C 19,4 C 74 % 1009,9 hPa 0,0 l/m 0 min 0 min 0,0 UV-I 0 W/m 2,6 km/h (1 Bft)
06.09.2013 00:24 22,0 C 19,4 C 74 % 1009,9 hPa 0,0 l/m 0 min 0 min 0,0 UV-I 0 W/m 0,0 km/h (0 Bft)
06.09.2013 00:26 21,9 C 19,4 C 74 % 1009,9 hPa 0,0 l/m 0 min 0 min 0,0 UV-I 0 W/m 0,0 km/h (0 Bft)
06.09.2013 00:28 21,9 C 19,4 C 74 % 1009,9 hPa 0,0 l/m 0 min 0 min 0,0 UV-I 0 W/m 0,0 km/h (0 Bft)
06.09.2013 00:30 21,8 C 19,4 C 74 % 1009,8 hPa 0,0 l/m 0 min 0 min 0,0 UV-I 0 W/m 0,0 km/h (0 Bft)
06.09.2013 00:32 21,8 C 19,4 C 74 % 1009,8 hPa 0,0 l/m 0 min 0 min 0,0 UV-I 0 W/m 0,0 km/h (0 Bft)
06.09.2013 00:34 21,8 C 19,4 C 75 % 1009,9 hPa 0,0 l/m 0 min 0 min 0,0 UV-I 0 W/m 2,6 km/h (1 Bft)
06.09.2013 00:36 21,7 C 19,4 C 75 % 1009,8 hPa 0,0 l/m 0 min 0 min 0,0 UV-I 0 W/m 7,7 km/h (2 Bft)
06.09.2013 00:38 21,7 C 19,4 C 75 % 1009,9 hPa 0,0 l/m 0 min 0 min 0,0 UV-I 0 W/m 0,0 km/h (0 Bft)
06.09.2013 00:40 21,7 C 19,4 C 75 % 1009,8 hPa 0,0 l/m 0 min 0 min 0,0 UV-I 0 W/m 2,6 km/h (1 Bft)
06.09.2013 00:42 21,7 C 19,4 C 75 % 1009,9 hPa 0,0 l/m 0 min 0 min 0,0 UV-I 0 W/m 0,0 km/h (0 Bft)
06.09.2013 00:44 21,7 C 19,4 C 75 % 1009,9 hPa 0,0 l/m 0 min 0 min 0,0 UV-I 0 W/m 0,0 km/h (0 Bft)
06.09.2013 00:46 21,6 C 19,4 C 75 % 1009,8 hPa 0,0 l/m 0 min 0 min 0,0 UV-I 0 W/m 0,0 km/h (0 Bft)
06.09.2013 00:48 21,6 C 19,4 C 76 % 1009,8 hPa 0,0 l/m 0 min 0 min 0,0 UV-I 0 W/m 0,0 km/h (0 Bft)
06.09.2013 00:50 21,5 C 19,4 C 75 % 1009,8 hPa 0,0 l/m 0 min 0 min 0,0 UV-I 0 W/m 2,6 km/h (1 Bft)
06.09.2013 00:52 21,5 C 19,4 C 76 % 1009,8 hPa 0,0 l/m 0 min 0 min 0,0 UV-I 0 W/m 0,0 km/h (0 Bft)
06.09.2013 00:54 21,4 C 19,4 C 76 % 1009,8 hPa 0,0 l/m 0 min 0 min 0,0 UV-I 0 W/m 0,0 km/h (0 Bft)
06.09.2013 00:56 21,4 C 18,9 C 76 % 1009,8 hPa 0,0 l/m 0 min 0 min 0,0 UV-I 0 W/m 2,6 km/h (1 Bft)
06.09.2013 00:58 21,4 C 18,9 C 76 % 1009,8 hPa 0,0 l/m 0 min 0 min 0,0 UV-I 0 W/m 0,0 km/h (0 Bft)
06.09.2013 01:00 21,3 C 18,9 C 76 % 1009,7 hPa 0,0 l/m 0 min 0 min 0,0 UV-I 0 W/m 0,0 km/h (0 Bft)
06.09.2013 01:02 21,3 C 18,9 C 76 % 1009,7 hPa 0,0 l/m 0 min 0 min 0,0 UV-I 0 W/m 0,0 km/h (0 Bft)
06.09.2013 01:06 21,2 C 18,9 C 77 % 1009,7 hPa 0,0 l/m 0 min 0 min 0,0 UV-I 0 W/m 0,0 km/h (0 Bft)
06.09.2013 01:08 21,2 C 18,9 C 77 % 1009,7 hPa 0,0 l/m 0 min 0 min 0,0 UV-I 0 W/m 2,6 km/h (1 Bft)
06.09.2013 01:10 21,2 C 18,9 C 77 % 1009,6 hPa 0,0 l/m 0 min 0 min 0,0 UV-I 0 W/m 0,0 km/h (0 Bft)
06.09.2013 01:12 21,2 C 18,9 C 77 % 1009,6 hPa 0,0 l/m 0 min 0 min 0,0 UV-I 0 W/m 0,0 km/h (0 Bft)
06.09.2013 01:14 21,2 C 18,9 C 77 % 1009,7 hPa 0,0 l/m 0 min 0 min 0,0 UV-I 0 W/m 0,0 km/h (0 Bft)
06.09.2013 01:16 21,2 C 18,9 C 77 % 1009,7 hPa 0,0 l/m 0 min 0 min 0,0 UV-I 0 W/m 0,0 km/h (0 Bft)
06.09.2013 01:18 21,2 C 19,4 C 77 % 1009,7 hPa 0,0 l/m 0 min 0 min 0,0 UV-I 0 W/m 0,0 km/h (0 Bft)
06.09.2013 01:20 21,2 C 18,9 C 77 % 1009,6 hPa 0,0 l/m 0 min 0 min 0,0 UV-I 0 W/m 0,0 km/h (0 Bft)
06.09.2013 01:22 21,1 C 18,9 C 77 % 1009,6 hPa 0,0 l/m 0 min 0 min 0,0 UV-I 0 W/m 0,0 km/h (0 Bft)
06.09.2013 01:24 21,1 C 18,9 C 77 % 1009,6 hPa 0,0 l/m 0 min 0 min 0,0 UV-I 0 W/m 7,7 km/h (2 Bft)
06.09.2013 01:26 21,1 C 18,9 C 77 % 1009,5 hPa 0,0 l/m 0 min 0 min 0,0 UV-I 0 W/m 2,6 km/h (1 Bft)
06.09.2013 01:28 21,1 C 18,9 C 77 % 1009,5 hPa 0,0 l/m 0 min 0 min 0,0 UV-I 0 W/m 0,0 km/h (0 Bft)
06.09.2013 01:30 21,1 C 18,9 C 77 % 1009,5 hPa 0,0 l/m 0 min 0 min 0,0 UV-I 0 W/m 2,6 km/h (1 Bft)
06.09.2013 01:32 21,1 C 18,9 C 77 % 1009,5 hPa 0,0 l/m 0 min 0 min 0,0 UV-I 0 W/m 10,3 km/h (2 Bft)
06.09.2013 01:34 21,1 C 18,9 C 77 % 1009,5 hPa 0,0 l/m 0 min 0 min 0,0 UV-I 0 W/m 2,6 km/h (1 Bft)
06.09.2013 01:36 21,1 C 18,9 C 77 % 1009,5 hPa 0,0 l/m 0 min 0 min 0,0 UV-I 0 W/m 0,0 km/h (0 Bft)
06.09.2013 01:38 21,1 C 18,9 C 77 % 1009,5 hPa 0,0 l/m 0 min 0 min 0,0 UV-I 0 W/m 2,6 km/h (1 Bft)
06.09.2013 01:40 21,1 C 18,9 C 77 % 1009,5 hPa 0,0 l/m 0 min 0 min 0,0 UV-I 0 W/m 2,6 km/h (1 Bft)
06.09.2013 01:42 21,0 C 18,9 C 77 % 1009,4 hPa 0,0 l/m 0 min 0 min 0,0 UV-I 0 W/m 7,7 km/h (2 Bft)
06.09.2013 01:44 21,0 C 18,9 C 77 % 1009,4 hPa 0,0 l/m 0 min 0 min 0,0 UV-I 0 W/m 7,7 km/h (2 Bft)
06.09.2013 01:46 21,0 C 18,9 C 76 % 1009,4 hPa 0,0 l/m 0 min 0 min 0,0 UV-I 0 W/m 2,6 km/h (1 Bft)
06.09.2013 01:48 21,0 C 18,9 C 76 % 1009,4 hPa 0,0 l/m 0 min 0 min 0,0 UV-I 0 W/m 10,3 km/h (2 Bft)
06.09.2013 01:50 21,0 C 18,9 C 76 % 1009,4 hPa 0,0 l/m 0 min 0 min 0,0 UV-I 0 W/m 10,3 km/h (2 Bft)
06.09.2013 01:52 21,0 C 18,9 C 76 % 1009,4 hPa 0,0 l/m 0 min 0 min 0,0 UV-I 0 W/m 10,3 km/h (2 Bft)
06.09.2013 01:54 21,0 C 18,9 C 76 % 1009,3 hPa 0,0 l/m 0 min 0 min 0,0 UV-I 0 W/m 10,3 km/h (2 Bft)
06.09.2013 01:56 20,9 C 18,9 C 76 % 1009,3 hPa 0,0 l/m 0 min 0 min 0,0 UV-I 0 W/m 7,7 km/h (2 Bft)
06.09.2013 01:58 20,9 C 18,9 C 76 % 1009,3 hPa 0,0 l/m 0 min 0 min 0,0 UV-I 0 W/m 0,0 km/h (0 Bft)
06.09.2013 02:00 20,9 C 18,9 C 76 % 1009,2 hPa 0,0 l/m 0 min 0 min 0,0 UV-I 0 W/m 10,3 km/h (2 Bft)
06.09.2013 02:02 20,9 C 18,9 C 76 % 1009,3 hPa 0,0 l/m 0 min 0 min 0,0 UV-I 0 W/m 10,3 km/h (2 Bft)
06.09.2013 02:06 20,8 C 18,9 C 76 % 1009,2 hPa 0,0 l/m 0 min 0 min 0,0 UV-I 0 W/m 5,1 km/h (1 Bft)
06.09.2013 02:08 20,8 C 18,9 C 77 % 1009,3 hPa 0,0 l/m 0 min 0 min 0,0 UV-I 0 W/m 10,3 km/h (2 Bft)
06.09.2013 02:10 20,8 C 18,9 C 77 % 1009,2 hPa 0,0 l/m 0 min 0 min 0,0 UV-I 0 W/m 10,3 km/h (2 Bft)
06.09.2013 02:12 20,7 C 18,9 C 77 % 1009,2 hPa 0,0 l/m 0 min 0 min 0,0 UV-I 0 W/m 7,7 km/h (2 Bft)
06.09.2013 02:14 20,7 C 18,9 C 77 % 1009,2 hPa 0,0 l/m 0 min 0 min 0,0 UV-I 0 W/m 2,6 km/h (1 Bft)
06.09.2013 02:16 20,7 C 18,9 C 77 % 1009,2 hPa 0,0 l/m 0 min 0 min 0,0 UV-I 0 W/m 10,3 km/h (2 Bft)
06.09.2013 02:18 20,7 C 18,9 C 77 % 1009,1 hPa 0,0 l/m 0 min 0 min 0,0 UV-I 0 W/m 5,1 km/h (1 Bft)
06.09.2013 02:20 20,6 C 18,9 C 77 % 1009,1 hPa 0,0 l/m 0 min 0 min 0,0 UV-I 0 W/m 0,0 km/h (0 Bft)
06.09.2013 02:22 20,6 C 18,9 C 77 % 1009,1 hPa 0,0 l/m 0 min 0 min 0,0 UV-I 0 W/m 2,6 km/h (1 Bft)
06.09.2013 02:24 20,5 C 18,9 C 77 % 1009,1 hPa 0,0 l/m 0 min 0 min 0,0 UV-I 0 W/m 2,6 km/h (1 Bft)
06.09.2013 02:26 20,4 C 18,9 C 77 % 1009,1 hPa 0,0 l/m 0 min 0 min 0,0 UV-I 0 W/m 7,7 km/h (2 Bft)
06.09.2013 02:28 20,4 C 18,9 C 77 % 1009,1 hPa 0,0 l/m 0 min 0 min 0,0 UV-I 0 W/m 2,6 km/h (1 Bft)
06.09.2013 02:30 20,4 C 18,9 C 77 % 1009,1 hPa 0,0 l/m 0 min 0 min 0,0 UV-I 0 W/m 5,1 km/h (1 Bft)
06.09.2013 02:32 20,4 C 18,3 C 77 % 1009,0 hPa 0,0 l/m 0 min 0 min 0,0 UV-I 0 W/m 10,3 km/h (2 Bft)
06.09.2013 02:34 20,4 C 18,9 C 77 % 1009,0 hPa 0,0 l/m 0 min 0 min 0,0 UV-I 0 W/m 7,7 km/h (2 Bft)
06.09.2013 02:36 20,3 C 18,3 C 77 % 1009,0 hPa 0,0 l/m 0 min 0 min 0,0 UV-I 0 W/m 2,6 km/h (1 Bft)
06.09.2013 02:38 20,3 C 18,3 C 78 % 1009,0 hPa 0,0 l/m 0 min 0 min 0,0 UV-I 0 W/m 7,7 km/h (2 Bft)
06.09.2013 02:40 20,3 C 18,3 C 78 % 1009,0 hPa 0,0 l/m 0 min 0 min 0,0 UV-I 0 W/m 2,6 km/h (1 Bft)
06.09.2013 02:42 20,3 C 18,3 C 78 % 1009,0 hPa 0,0 l/m 0 min 0 min 0,0 UV-I 0 W/m 0,0 km/h (0 Bft)
06.09.2013 02:44 20,3 C 18,3 C 78 % 1008,9 hPa 0,0 l/m 0 min 0 min 0,0 UV-I 0 W/m 7,7 km/h (2 Bft)
06.09.2013 02:46 20,3 C 18,3 C 78 % 1008,9 hPa 0,0 l/m 0 min 0 min 0,0 UV-I 0 W/m 10,3 km/h (2 Bft)
06.09.2013 02:48 20,3 C 18,3 C 78 % 1008,9 hPa 0,0 l/m 0 min 0 min 0,0 UV-I 0 W/m 10,3 km/h (2 Bft)
06.09.2013 02:50 20,3 C 18,3 C 78 % 1008,9 hPa 0,0 l/m 0 min 0 min 0,0 UV-I 0 W/m 10,3 km/h (2 Bft)
06.09.2013 02:52 20,3 C 18,3 C 78 % 1008,7 hPa 0,0 l/m 0 min 0 min 0,0 UV-I 0 W/m 7,7 km/h (2 Bft)
06.09.2013 02:54 20,3 C 18,3 C 77 % 1008,7 hPa 0,0 l/m 0 min 0 min 0,0 UV-I 0 W/m 15,4 km/h (3 Bft)
06.09.2013 02:56 20,3 C 18,3 C 77 % 1008,7 hPa 0,0 l/m 0 min 0 min 0,0 UV-I 0 W/m 5,1 km/h (1 Bft)
06.09.2013 02:58 20,3 C 18,3 C 77 % 1008,7 hPa 0,0 l/m 0 min 0 min 0,0 UV-I 0 W/m 7,7 km/h (2 Bft)
06.09.2013 03:00 20,3 C 18,3 C 77 % 1008,6 hPa 0,0 l/m 0 min 0 min 0,0 UV-I 0 W/m 7,7 km/h (2 Bft)
06.09.2013 03:02 20,3 C 18,3 C 77 % 1008,6 hPa 0,0 l/m 0 min 0 min 0,0 UV-I 0 W/m 5,1 km/h (1 Bft)
06.09.2013 03:05 20,3 C 18,3 C 77 % 1008,6 hPa 0,0 l/m 0 min 0 min 0,0 UV-I 0 W/m 7,7 km/h (2 Bft)
06.09.2013 03:06 20,3 C 18,3 C 77 % 1008,6 hPa 0,0 l/m 0 min 0 min 0,0 UV-I 0 W/m 5,1 km/h (1 Bft)
06.09.2013 03:08 20,3 C 18,3 C 77 % 1008,6 hPa 0,0 l/m 0 min 0 min 0,0 UV-I 0 W/m 7,7 km/h (2 Bft)
06.09.2013 03:10 20,3 C 18,3 C 77 % 1008,6 hPa 0,0 l/m 0 min 0 min 0,0 UV-I 0 W/m 10,3 km/h (2 Bft)
06.09.2013 03:12 20,3 C 18,3 C 77 % 1008,6 hPa 0,0 l/m 0 min 0 min 0,0 UV-I 0 W/m 5,1 km/h (1 Bft)
06.09.2013 03:14 20,2 C 18,3 C 77 % 1008,6 hPa 0,0 l/m 0 min 0 min 0,0 UV-I 0 W/m 10,3 km/h (2 Bft)
06.09.2013 03:16 20,2 C 18,3 C 77 % 1008,5 hPa 0,0 l/m 0 min 0 min 0,0 UV-I 0 W/m 10,3 km/h (2 Bft)
06.09.2013 03:18 20,2 C 18,3 C 77 % 1008,5 hPa 0,0 l/m 0 min 0 min 0,0 UV-I 0 W/m 7,7 km/h (2 Bft)
06.09.2013 03:20 20,2 C 18,3 C 77 % 1008,6 hPa 0,0 l/m 0 min 0 min 0,0 UV-I 0 W/m 10,3 km/h (2 Bft)
06.09.2013 03:22 20,2 C 18,3 C 77 % 1008,5 hPa 0,0 l/m 0 min 0 min 0,0 UV-I 0 W/m 7,7 km/h (2 Bft)
06.09.2013 03:24 20,2 C 18,3 C 77 % 1008,5 hPa 0,0 l/m 0 min 0 min 0,0 UV-I 0 W/m 7,7 km/h (2 Bft)
06.09.2013 03:26 20,2 C 18,3 C 77 % 1008,5 hPa 0,0 l/m 0 min 0 min 0,0 UV-I 0 W/m 7,7 km/h (2 Bft)
06.09.2013 03:28 20,2 C 18,3 C 77 % 1008,4 hPa 0,0 l/m 0 min 0 min 0,0 UV-I 0 W/m 5,1 km/h (1 Bft)
06.09.2013 03:30 20,2 C 18,3 C 77 % 1008,5 hPa 0,0 l/m 0 min 0 min 0,0 UV-I 0 W/m 7,7 km/h (2 Bft)
06.09.2013 03:32 20,2 C 18,3 C 77 % 1008,4 hPa 0,0 l/m 0 min 0 min 0,0 UV-I 0 W/m 7,7 km/h (2 Bft)
06.09.2013 03:34 20,1 C 18,3 C 78 % 1008,4 hPa 0,0 l/m 0 min 0 min 0,0 UV-I 0 W/m 2,6 km/h (1 Bft)
06.09.2013 03:36 20,1 C 18,3 C 78 % 1008,4 hPa 0,0 l/m 0 min 0 min 0,0 UV-I 0 W/m 2,6 km/h (1 Bft)
06.09.2013 03:38 20,1 C 18,3 C 77 % 1008,4 hPa 0,0 l/m 0 min 0 min 0,0 UV-I 0 W/m 7,7 km/h (2 Bft)
06.09.2013 03:40 20,1 C 18,3 C 78 % 1008,4 hPa 0,0 l/m 0 min 0 min 0,0 UV-I 0 W/m 12,9 km/h (3 Bft)
06.09.2013 03:42 20,0 C 18,3 C 78 % 1008,4 hPa 0,0 l/m 0 min 0 min 0,0 UV-I 0 W/m 10,3 km/h (2 Bft)
06.09.2013 03:44 20,0 C 18,3 C 78 % 1008,4 hPa 0,0 l/m 0 min 0 min 0,0 UV-I 0 W/m 7,7 km/h (2 Bft)
06.09.2013 03:46 19,9 C 18,3 C 78 % 1008,4 hPa 0,0 l/m 0 min 0 min 0,0 UV-I 0 W/m 2,6 km/h (1 Bft)
06.09.2013 03:48 19,9 C 18,3 C 78 % 1008,4 hPa 0,0 l/m 0 min 0 min 0,0 UV-I 0 W/m 5,1 km/h (1 Bft)
06.09.2013 03:50 19,9 C 18,3 C 78 % 1008,3 hPa 0,0 l/m 0 min 0 min 0,0 UV-I 0 W/m 0,0 km/h (0 Bft)
06.09.2013 03:52 19,8 C 17,8 C 78 % 1008,4 hPa 0,0 l/m 0 min 0 min 0,0 UV-I 0 W/m 2,6 km/h (1 Bft)
06.09.2013 03:54 19,8 C 17,8 C 78 % 1008,4 hPa 0,0 l/m 0 min 0 min 0,0 UV-I 0 W/m 10,3 km/h (2 Bft)
06.09.2013 03:56 19,7 C 17,8 C 79 % 1008,3 hPa 0,0 l/m 0 min 0 min 0,0 UV-I 0 W/m 2,6 km/h (1 Bft)
06.09.2013 03:58 19,7 C 17,8 C 79 % 1008,4 hPa 0,0 l/m 0 min 0 min 0,0 UV-I 0 W/m 0,0 km/h (0 Bft)
06.09.2013 04:00 19,6 C 17,8 C 79 % 1008,3 hPa 0,0 l/m 0 min 0 min 0,0 UV-I 0 W/m 10,3 km/h (2 Bft)
06.09.2013 04:02 19,6 C 17,8 C 79 % 1008,3 hPa 0,0 l/m 0 min 0 min 0,0 UV-I 0 W/m 10,3 km/h (2 Bft)
06.09.2013 04:06 19,5 C 17,8 C 79 % 1008,3 hPa 0,0 l/m 0 min 0 min 0,0 UV-I 0 W/m 0,0 km/h (0 Bft)
06.09.2013 04:11 19,4 C 17,8 C 79 % 1008,3 hPa 0,0 l/m 0 min 0 min 0,0 UV-I 0 W/m 5,1 km/h (1 Bft)
06.09.2013 04:12 19,4 C 17,8 C 79 % 1008,3 hPa 0,0 l/m 0 min 0 min 0,0 UV-I 0 W/m 0,0 km/h (0 Bft)
06.09.2013 04:14 19,4 C 17,8 C 79 % 1008,1 hPa 0,0 l/m 0 min 0 min 0,0 UV-I 0 W/m 2,6 km/h (1 Bft)
06.09.2013 04:16 19,4 C 17,8 C 80 % 1008,1 hPa 0,0 l/m 0 min 0 min 0,0 UV-I 0 W/m 2,6 km/h (1 Bft)
06.09.2013 04:18 19,4 C 17,8 C 80 % 1008,2 hPa 0,0 l/m 0 min 0 min 0,0 UV-I 0 W/m 0,0 km/h (0 Bft)
06.09.2013 04:20 19,3 C 17,8 C 80 % 1008,1 hPa 0,0 l/m 0 min 0 min 0,0 UV-I 0 W/m 2,6 km/h (1 Bft)
06.09.2013 04:22 19,3 C 17,8 C 80 % 1008,1 hPa 0,0 l/m 0 min 0 min 0,0 UV-I 0 W/m 2,6 km/h (1 Bft)
06.09.2013 04:24 19,3 C 17,8 C 80 % 1008,1 hPa 0,0 l/m 0 min 0 min 0,0 UV-I 0 W/m 0,0 km/h (0 Bft)
06.09.2013 04:26 19,3 C 17,8 C 80 % 1008,1 hPa 0,0 l/m 0 min 0 min 0,0 UV-I 0 W/m 0,0 km/h (0 Bft)
06.09.2013 04:28 19,3 C 17,2 C 80 % 1008,1 hPa 0,0 l/m 0 min 0 min 0,0 UV-I 0 W/m 0,0 km/h (0 Bft)
06.09.2013 04:30 19,3 C 17,8 C 80 % 1008,1 hPa 0,0 l/m 0 min 0 min 0,0 UV-I 0 W/m 2,6 km/h (1 Bft)
06.09.2013 04:32 19,3 C 17,8 C 80 % 1008,0 hPa 0,0 l/m 0 min 0 min 0,0 UV-I 0 W/m 0,0 km/h (0 Bft)
06.09.2013 04:34 19,3 C 17,8 C 80 % 1008,1 hPa 0,0 l/m 0 min 0 min 0,0 UV-I 0 W/m 2,6 km/h (1 Bft)
06.09.2013 04:36 19,3 C 17,8 C 80 % 1008,0 hPa 0,0 l/m 0 min 0 min 0,0 UV-I 0 W/m 0,0 km/h (0 Bft)
06.09.2013 04:38 19,3 C 17,8 C 80 % 1008,0 hPa 0,0 l/m 0 min 0 min 0,0 UV-I 0 W/m 7,7 km/h (2 Bft)
06.09.2013 04:40 19,3 C 17,8 C 80 % 1007,9 hPa 0,0 l/m 0 min 0 min 0,0 UV-I 0 W/m 0,0 km/h (0 Bft)
06.09.2013 04:42 19,3 C 17,8 C 80 % 1008,0 hPa 0,0 l/m 0 min 0 min 0,0 UV-I 0 W/m 2,6 km/h (1 Bft)
06.09.2013 04:44 19,3 C 17,8 C 80 % 1007,9 hPa 0,0 l/m 0 min 0 min 0,0 UV-I 0 W/m 2,6 km/h (1 Bft)
06.09.2013 04:46 19,3 C 17,8 C 80 % 1008,0 hPa 0,0 l/m 0 min 0 min 0,0 UV-I 0 W/m 0,0 km/h (0 Bft)
06.09.2013 04:48 19,3 C 17,8 C 80 % 1007,9 hPa 0,0 l/m 0 min 0 min 0,0 UV-I 0 W/m 2,6 km/h (1 Bft)
06.09.2013 04:50 19,3 C 17,8 C 80 % 1008,0 hPa 0,0 l/m 0 min 0 min 0,0 UV-I 0 W/m 0,0 km/h (0 Bft)
06.09.2013 04:52 19,3 C 17,8 C 80 % 1007,9 hPa 0,0 l/m 0 min 0 min 0,0 UV-I 0 W/m 7,7 km/h (2 Bft)
06.09.2013 04:54 19,3 C 17,8 C 79 % 1007,9 hPa 0,0 l/m 0 min 0 min 0,0 UV-I 0 W/m 2,6 km/h (1 Bft)
06.09.2013 04:56 19,3 C 17,8 C 79 % 1007,9 hPa 0,0 l/m 0 min 0 min 0,0 UV-I 0 W/m 0,0 km/h (0 Bft)
06.09.2013 04:58 19,3 C 17,2 C 79 % 1007,9 hPa 0,0 l/m 0 min 0 min 0,0 UV-I 0 W/m 2,6 km/h (1 Bft)
06.09.2013 05:00 19,3 C 17,2 C 79 % 1007,9 hPa 0,0 l/m 0 min 0 min 0,0 UV-I 0 W/m 2,6 km/h (1 Bft)
06.09.2013 05:02 19,3 C 17,2 C 79 % 1007,9 hPa 0,0 l/m 0 min 0 min 0,0 UV-I 0 W/m 7,7 km/h (2 Bft)
06.09.2013 05:06 19,3 C 17,8 C 79 % 1007,9 hPa 0,0 l/m 0 min 0 min 0,0 UV-I 0 W/m 10,3 km/h (2 Bft)
06.09.2013 05:08 19,3 C 17,8 C 79 % 1007,8 hPa 0,0 l/m 0 min 0 min 0,0 UV-I 0 W/m 2,6 km/h (1 Bft)
06.09.2013 05:10 19,3 C 17,8 C 79 % 1007,9 hPa 0,0 l/m 0 min 0 min 0,0 UV-I 0 W/m 7,7 km/h (2 Bft)
06.09.2013 05:12 19,3 C 17,8 C 79 % 1007,8 hPa 0,0 l/m 0 min 0 min 0,0 UV-I 0 W/m 2,6 km/h (1 Bft)
06.09.2013 05:14 19,4 C 17,8 C 79 % 1007,9 hPa 0,0 l/m 0 min 0 min 0,0 UV-I 0 W/m 10,3 km/h (2 Bft)
06.09.2013 05:16 19,3 C 17,8 C 79 % 1007,9 hPa 0,0 l/m 0 min 0 min 0,0 UV-I 0 W/m 10,3 km/h (2 Bft)
06.09.2013 05:18 19,4 C 17,8 C 79 % 1007,9 hPa 0,0 l/m 0 min 0 min 0,0 UV-I 0 W/m 10,3 km/h (2 Bft)
06.09.2013 05:20 19,4 C 17,8 C 79 % 1007,9 hPa 0,0 l/m 0 min 0 min 0,0 UV-I 0 W/m 10,3 km/h (2 Bft)
06.09.2013 05:22 19,3 C 17,8 C 79 % 1007,9 hPa 0,0 l/m 0 min 0 min 0,0 UV-I 0 W/m 7,7 km/h (2 Bft)
06.09.2013 05:24 19,3 C 17,8 C 79 % 1007,9 hPa 0,0 l/m 0 min 0 min 0,0 UV-I 0 W/m 7,7 km/h (2 Bft)
06.09.2013 05:26 19,3 C 17,8 C 79 % 1007,8 hPa 0,0 l/m 0 min 0 min 0,0 UV-I 0 W/m 7,7 km/h (2 Bft)
06.09.2013 05:28 19,3 C 17,8 C 79 % 1007,9 hPa 0,0 l/m 0 min 0 min 0,0 UV-I 0 W/m 2,6 km/h (1 Bft)
06.09.2013 05:30 19,3 C 17,8 C 79 % 1007,8 hPa 0,0 l/m 0 min 0 min 0,0 UV-I 0 W/m 12,9 km/h (3 Bft)
06.09.2013 05:32 19,3 C 17,8 C 79 % 1007,8 hPa 0,0 l/m 0 min 0 min 0,0 UV-I 0 W/m 10,3 km/h (2 Bft)
06.09.2013 05:34 19,3 C 17,8 C 79 % 1007,9 hPa 0,0 l/m 0 min 0 min 0,0 UV-I 0 W/m 2,6 km/h (1 Bft)
06.09.2013 05:36 19,3 C 17,8 C 79 % 1007,9 hPa 0,0 l/m 0 min 0 min 0,0 UV-I 0 W/m 2,6 km/h (1 Bft)
06.09.2013 05:38 19,3 C 17,8 C 79 % 1007,9 hPa 0,0 l/m 0 min 0 min 0,0 UV-I 0 W/m 2,6 km/h (1 Bft)
06.09.2013 05:40 19,3 C 17,2 C 79 % 1007,8 hPa 0,0 l/m 0 min 0 min 0,0 UV-I 0 W/m 2,6 km/h (1 Bft)
06.09.2013 05:42 19,3 C 17,2 C 79 % 1007,8 hPa 0,0 l/m 0 min 0 min 0,0 UV-I 0 W/m 7,7 km/h (2 Bft)
06.09.2013 05:44 19,2 C 17,2 C 79 % 1007,8 hPa 0,0 l/m 0 min 0 min 0,0 UV-I 0 W/m 2,6 km/h (1 Bft)
06.09.2013 05:46 19,2 C 17,2 C 79 % 1007,8 hPa 0,0 l/m 0 min 0 min 0,0 UV-I 0 W/m 2,6 km/h (1 Bft)
06.09.2013 05:48 19,2 C 17,2 C 79 % 1007,8 hPa 0,0 l/m 0 min 0 min 0,0 UV-I 0 W/m 2,6 km/h (1 Bft)
06.09.2013 05:50 19,2 C 17,2 C 79 % 1007,8 hPa 0,0 l/m 0 min 0 min 0,0 UV-I 0 W/m 7,7 km/h (2 Bft)
06.09.2013 05:52 19,2 C 17,2 C 79 % 1007,8 hPa 0,0 l/m 0 min 0 min 0,0 UV-I 0 W/m 2,6 km/h (1 Bft)
06.09.2013 05:54 19,2 C 17,2 C 79 % 1007,8 hPa 0,0 l/m 0 min 0 min 0,0 UV-I 0 W/m 0,0 km/h (0 Bft)
06.09.2013 05:56 19,2 C 17,2 C 79 % 1007,8 hPa 0,0 l/m 0 min 0 min 0,0 UV-I 0 W/m 2,6 km/h (1 Bft)
06.09.2013 05:58 19,1 C 17,2 C 79 % 1007,8 hPa 0,0 l/m 0 min 0 min 0,0 UV-I 0 W/m 0,0 km/h (0 Bft)
06.09.2013 06:00 19,1 C 17,2 C 79 % 1007,7 hPa 0,0 l/m 0 min 0 min 0,0 UV-I 0 W/m 10,3 km/h (2 Bft)
06.09.2013 06:02 19,1 C 17,2 C 79 % 1007,7 hPa 0,0 l/m 0 min 0 min 0,0 UV-I 0 W/m 2,6 km/h (1 Bft)
06.09.2013 06:06 19,0 C 17,2 C 80 % 1007,7 hPa 0,0 l/m 0 min 0 min 0,0 UV-I 0 W/m 7,7 km/h (2 Bft)
06.09.2013 06:08 19,0 C 17,2 C 80 % 1007,7 hPa 0,0 l/m 0 min 0 min 0,0 UV-I 0 W/m 2,6 km/h (1 Bft)
06.09.2013 06:10 18,9 C 17,2 C 80 % 1007,7 hPa 0,0 l/m 0 min 0 min 0,0 UV-I 0 W/m 0,0 km/h (0 Bft)
06.09.2013 06:12 19,0 C 17,2 C 80 % 1007,7 hPa 0,0 l/m 0 min 0 min 0,0 UV-I 0 W/m 2,6 km/h (1 Bft)
06.09.2013 06:14 19,0 C 17,2 C 80 % 1007,7 hPa 0,0 l/m 0 min 0 min 0,0 UV-I 0 W/m 2,6 km/h (1 Bft)
06.09.2013 06:16 19,0 C 17,2 C 80 % 1007,8 hPa 0,0 l/m 0 min 0 min 0,0 UV-I 0 W/m 0,0 km/h (0 Bft)
06.09.2013 06:18 18,9 C 17,2 C 80 % 1007,7 hPa 0,0 l/m 0 min 0 min 0,0 UV-I 0 W/m 0,0 km/h (0 Bft)
06.09.2013 06:20 18,9 C 17,2 C 80 % 1007,7 hPa 0,0 l/m 0 min 0 min 0,0 UV-I 0 W/m 2,6 km/h (1 Bft)
06.09.2013 06:22 18,9 C 17,2 C 80 % 1007,8 hPa 0,0 l/m 0 min 0 min 0,0 UV-I 0 W/m 0,0 km/h (0 Bft)
06.09.2013 06:24 18,9 C 17,2 C 80 % 1007,8 hPa 0,0 l/m 0 min 0 min 0,0 UV-I 0 W/m 0,0 km/h (0 Bft)
06.09.2013 06:26 18,9 C 17,2 C 80 % 1007,7 hPa 0,0 l/m 0 min 0 min 0,0 UV-I 0 W/m 0,0 km/h (0 Bft)
06.09.2013 06:28 18,9 C 17,2 C 80 % 1007,8 hPa 0,0 l/m 0 min 0 min 0,0 UV-I 0 W/m 2,6 km/h (1 Bft)
06.09.2013 06:30 18,9 C 17,2 C 80 % 1007,8 hPa 0,0 l/m 0 min 0 min 0,0 UV-I 0 W/m 2,6 km/h (1 Bft)
06.09.2013 06:32 18,9 C 17,2 C 80 % 1007,7 hPa 0,0 l/m 0 min 0 min 0,0 UV-I 0 W/m 2,6 km/h (1 Bft)
06.09.2013 06:34 18,9 C 16,7 C 80 % 1007,8 hPa 0,0 l/m 0 min 0 min 0,0 UV-I 0 W/m 0,0 km/h (0 Bft)
06.09.2013 06:36 18,9 C 16,7 C 80 % 1007,8 hPa 0,0 l/m 0 min 0 min 0,0 UV-I 0 W/m 0,0 km/h (0 Bft)
06.09.2013 06:38 18,8 C 16,7 C 80 % 1007,8 hPa 0,0 l/m 0 min 0 min 0,0 UV-I 0 W/m 2,6 km/h (1 Bft)
06.09.2013 06:40 18,8 C 16,7 C 80 % 1007,8 hPa 0,0 l/m 0 min 0 min 0,0 UV-I 0 W/m 0,0 km/h (0 Bft)
06.09.2013 06:42 18,8 C 16,7 C 80 % 1007,9 hPa 0,0 l/m 0 min 0 min 0,0 UV-I 0 W/m 0,0 km/h (0 Bft)
06.09.2013 06:44 18,8 C 16,7 C 80 % 1007,9 hPa 0,0 l/m 0 min 0 min 0,0 UV-I 0 W/m 0,0 km/h (0 Bft)
06.09.2013 06:46 18,8 C 16,7 C 80 % 1007,9 hPa 0,0 l/m 0 min 0 min 0,0 UV-I 0 W/m 0,0 km/h (0 Bft)
06.09.2013 06:48 18,7 C 16,7 C 80 % 1007,9 hPa 0,0 l/m 0 min 0 min 0,0 UV-I 0 W/m 0,0 km/h (0 Bft)
06.09.2013 06:50 18,7 C 16,7 C 80 % 1008,0 hPa 0,0 l/m 0 min 0 min 0,0 UV-I 0 W/m 0,0 km/h (0 Bft)
06.09.2013 06:52 18,6 C 16,7 C 80 % 1008,0 hPa 0,0 l/m 0 min 0 min 0,0 UV-I 0 W/m 0,0 km/h (0 Bft)
06.09.2013 06:54 18,6 C 16,7 C 81 % 1007,9 hPa 0,0 l/m 0 min 0 min 0,0 UV-I 5 W/m 0,0 km/h (0 Bft)
06.09.2013 06:56 18,5 C 16,1 C 81 % 1007,9 hPa 0,0 l/m 0 min 0 min 0,0 UV-I 5 W/m 0,0 km/h (0 Bft)
06.09.2013 06:58 18,4 C 16,1 C 81 % 1008,0 hPa 0,0 l/m 0 min 0 min 0,0 UV-I 5 W/m 0,0 km/h (0 Bft)
06.09.2013 07:00 18,4 C 16,1 C 81 % 1008,0 hPa 0,0 l/m 0 min 0 min 0,0 UV-I 7 W/m 0,0 km/h (0 Bft)
06.09.2013 07:02 18,4 C 16,1 C 81 % 1008,0 hPa 0,0 l/m 0 min 0 min 0,0 UV-I 7 W/m 0,0 km/h (0 Bft)
06.09.2013 07:06 18,3 C 16,1 C 82 % 1008,0 hPa 0,0 l/m 0 min 0 min 0,0 UV-I 11 W/m 2,6 km/h (1 Bft)
06.09.2013 07:08 18,4 C 16,1 C 82 % 1008,0 hPa 0,0 l/m 0 min 0 min 0,0 UV-I 11 W/m 0,0 km/h (0 Bft)
06.09.2013 07:10 18,4 C 16,1 C 81 % 1008,0 hPa 0,0 l/m 0 min 0 min 0,0 UV-I 11 W/m 0,0 km/h (0 Bft)
06.09.2013 07:12 18,4 C 16,1 C 82 % 1008,0 hPa 0,0 l/m 0 min 0 min 0,0 UV-I 12 W/m 0,0 km/h (0 Bft)
06.09.2013 07:14 18,4 C 16,1 C 82 % 1008,0 hPa 0,0 l/m 0 min 0 min 0,0 UV-I 14 W/m 0,0 km/h (0 Bft)
06.09.2013 07:16 18,4 C 16,1 C 81 % 1008,0 hPa 0,0 l/m 0 min 0 min 0,0 UV-I 14 W/m 0,0 km/h (0 Bft)
06.09.2013 07:18 18,4 C 16,1 C 82 % 1008,0 hPa 0,0 l/m 0 min 0 min 0,0 UV-I 16 W/m 0,0 km/h (0 Bft)
06.09.2013 07:20 18,4 C 16,7 C 82 % 1008,0 hPa 0,0 l/m 0 min 0 min 0,0 UV-I 16 W/m 0,0 km/h (0 Bft)
06.09.2013 07:22 18,4 C 16,7 C 82 % 1007,9 hPa 0,0 l/m 0 min 0 min 0,0 UV-I 18 W/m 2,6 km/h (1 Bft)
06.09.2013 07:24 18,4 C 16,7 C 82 % 1007,9 hPa 0,0 l/m 0 min 0 min 0,0 UV-I 18 W/m 2,6 km/h (1 Bft)
06.09.2013 07:26 18,4 C 16,7 C 82 % 1007,8 hPa 0,0 l/m 0 min 0 min 0,0 UV-I 19 W/m 5,1 km/h (1 Bft)
06.09.2013 07:28 18,5 C 17,2 C 82 % 1007,8 hPa 0,0 l/m 0 min 0 min 0,0 UV-I 19 W/m 12,9 km/h (3 Bft)
06.09.2013 07:30 18,6 C 17,2 C 82 % 1007,8 hPa 0,0 l/m 0 min 0 min 0,0 UV-I 21 W/m 10,3 km/h (2 Bft)
06.09.2013 07:32 18,6 C 17,2 C 81 % 1007,8 hPa 0,0 l/m 0 min 0 min 0,0 UV-I 23 W/m 10,3 km/h (2 Bft)
06.09.2013 07:34 18,7 C 17,2 C 81 % 1007,8 hPa 0,0 l/m 0 min 0 min 0,0 UV-I 23 W/m 10,3 km/h (2 Bft)
06.09.2013 07:36 18,7 C 17,2 C 81 % 1007,9 hPa 0,0 l/m 0 min 0 min 0,0 UV-I 23 W/m 10,3 km/h (2 Bft)
06.09.2013 07:38 18,8 C 17,2 C 81 % 1007,9 hPa 0,0 l/m 0 min 0 min 0,0 UV-I 25 W/m 10,3 km/h (2 Bft)
06.09.2013 07:40 18,9 C 17,2 C 80 % 1007,9 hPa 0,0 l/m 0 min 0 min 0,0 UV-I 25 W/m 10,3 km/h (2 Bft)
06.09.2013 07:42 19,0 C 17,2 C 80 % 1007,9 hPa 0,0 l/m 0 min 0 min 0,0 UV-I 25 W/m 15,4 km/h (3 Bft)
06.09.2013 07:44 19,1 C 17,8 C 80 % 1007,8 hPa 0,0 l/m 0 min 0 min 0,0 UV-I 25 W/m 2,6 km/h (1 Bft)
06.09.2013 07:46 19,1 C 17,8 C 80 % 1007,8 hPa 0,0 l/m 0 min 0 min 0,0 UV-I 26 W/m 7,7 km/h (2 Bft)
06.09.2013 07:48 19,2 C 17,8 C 80 % 1007,9 hPa 0,0 l/m 0 min 0 min 0,0 UV-I 28 W/m 5,1 km/h (1 Bft)
06.09.2013 07:50 19,2 C 17,8 C 79 % 1007,9 hPa 0,0 l/m 0 min 0 min 0,0 UV-I 28 W/m 7,7 km/h (2 Bft)
06.09.2013 07:52 19,2 C 17,8 C 79 % 1007,9 hPa 0,0 l/m 0 min 0 min 0,0 UV-I 30 W/m 10,3 km/h (2 Bft)
06.09.2013 07:54 19,2 C 17,8 C 79 % 1008,0 hPa 0,0 l/m 0 min 0 min 0,0 UV-I 30 W/m 10,3 km/h (2 Bft)
06.09.2013 07:56 19,2 C 17,8 C 79 % 1008,0 hPa 0,0 l/m 0 min 0 min 0,0 UV-I 32 W/m 10,3 km/h (2 Bft)
06.09.2013 07:58 19,2 C 17,8 C 79 % 1008,0 hPa 0,0 l/m 0 min 0 min 0,0 UV-I 32 W/m 7,7 km/h (2 Bft)
06.09.2013 08:00 19,2 C 17,8 C 79 % 1007,9 hPa 0,0 l/m 0 min 0 min 0,0 UV-I 32 W/m 10,3 km/h (2 Bft)
06.09.2013 08:02 19,2 C 17,8 C 79 % 1008,1 hPa 0,0 l/m 0 min 0 min 0,0 UV-I 33 W/m 7,7 km/h (2 Bft)
06.09.2013 08:06 19,3 C 17,8 C 79 % 1008,2 hPa 0,0 l/m 0 min 0 min 0,0 UV-I 35 W/m 2,6 km/h (1 Bft)
06.09.2013 08:08 19,4 C 17,8 C 79 % 1008,2 hPa 0,0 l/m 0 min 0 min 0,0 UV-I 35 W/m 0,0 km/h (0 Bft)
06.09.2013 08:10 19,4 C 17,8 C 79 % 1008,2 hPa 0,0 l/m 0 min 0 min 0,0 UV-I 35 W/m 5,1 km/h (1 Bft)
06.09.2013 08:12 19,4 C 17,8 C 79 % 1008,2 hPa 0,0 l/m 0 min 0 min 0,0 UV-I 35 W/m 0,0 km/h (0 Bft)
06.09.2013 08:14 19,5 C 17,8 C 79 % 1008,2 hPa 0,0 l/m 0 min 0 min 0,0 UV-I 35 W/m 10,3 km/h (2 Bft)
06.09.2013 08:16 19,6 C 17,8 C 79 % 1008,1 hPa 0,0 l/m 0 min 0 min 0,0 UV-I 35 W/m 10,3 km/h (2 Bft)
06.09.2013 08:18 19,6 C 18,3 C 79 % 1008,1 hPa 0,0 l/m 0 min 0 min 0,0 UV-I 37 W/m 7,7 km/h (2 Bft)
06.09.2013 08:20 19,7 C 18,3 C 79 % 1008,2 hPa 0,0 l/m 0 min 0 min 0,0 UV-I 37 W/m 10,3 km/h (2 Bft)
06.09.2013 08:22 19,8 C 18,3 C 78 % 1008,1 hPa 0,0 l/m 0 min 0 min 0,0 UV-I 37 W/m 7,7 km/h (2 Bft)
06.09.2013 08:24 19,8 C 18,3 C 78 % 1008,1 hPa 0,0 l/m 0 min 0 min 0,0 UV-I 37 W/m 12,9 km/h (3 Bft)
06.09.2013 08:26 19,9 C 18,3 C 78 % 1008,1 hPa 0,0 l/m 0 min 0 min 0,0 UV-I 37 W/m 10,3 km/h (2 Bft)
06.09.2013 08:28 20,0 C 18,3 C 78 % 1008,1 hPa 0,0 l/m 0 min 0 min 0,0 UV-I 67 W/m 10,3 km/h (2 Bft)
06.09.2013 08:30 20,1 C 18,3 C 77 % 1008,2 hPa 0,0 l/m 2 min 0 min 0,0 UV-I 160 W/m 10,3 km/h (2 Bft)
06.09.2013 08:32 20,2 C 18,3 C 77 % 1008,1 hPa 0,0 l/m 2 min 0 min 0,0 UV-I 165 W/m 5,1 km/h (1 Bft)
06.09.2013 08:34 20,2 C 18,3 C 77 % 1008,1 hPa 0,0 l/m 2 min 0 min 0,0 UV-I 174 W/m 5,1 km/h (1 Bft)
06.09.2013 08:36 20,3 C 18,9 C 77 % 1008,1 hPa 0,0 l/m 2 min 0 min 0,0 UV-I 179 W/m 10,3 km/h (2 Bft)
06.09.2013 08:38 20,4 C 18,9 C 77 % 1008,2 hPa 0,0 l/m 2 min 0 min 0,0 UV-I 185 W/m 2,6 km/h (1 Bft)
06.09.2013 08:40 20,4 C 18,9 C 76 % 1008,2 hPa 0,0 l/m 2 min 0 min 0,0 UV-I 192 W/m 10,3 km/h (2 Bft)
06.09.2013 08:42 20,5 C 18,9 C 76 % 1008,2 hPa 0,0 l/m 2 min 0 min 0,0 UV-I 197 W/m 15,4 km/h (3 Bft)
06.09.2013 08:44 20,6 C 18,9 C 76 % 1008,3 hPa 0,0 l/m 2 min 0 min 0,0 UV-I 200 W/m 10,3 km/h (2 Bft)
06.09.2013 08:46 20,7 C 18,9 C 76 % 1008,3 hPa 0,0 l/m 2 min 0 min 0,0 UV-I 206 W/m 2,6 km/h (1 Bft)
06.09.2013 08:48 20,8 C 18,9 C 75 % 1008,2 hPa 0,0 l/m 2 min 0 min 0,0 UV-I 211 W/m 20,6 km/h (4 Bft)
06.09.2013 08:50 20,8 C 18,9 C 75 % 1008,2 hPa 0,0 l/m 2 min 0 min 0,0 UV-I 214 W/m 12,9 km/h (3 Bft)
06.09.2013 08:52 20,9 C 19,4 C 75 % 1008,2 hPa 0,0 l/m 2 min 0 min 0,0 UV-I 221 W/m 15,4 km/h (3 Bft)
06.09.2013 08:54 21,0 C 19,4 C 75 % 1008,2 hPa 0,0 l/m 2 min 0 min 0,0 UV-I 225 W/m 7,7 km/h (2 Bft)
06.09.2013 08:56 21,1 C 19,4 C 75 % 1008,2 hPa 0,0 l/m 2 min 0 min 0,0 UV-I 232 W/m 7,7 km/h (2 Bft)
06.09.2013 08:58 21,1 C 19,4 C 74 % 1008,2 hPa 0,0 l/m 2 min 0 min 0,0 UV-I 236 W/m 20,6 km/h (4 Bft)
06.09.2013 09:00 21,2 C 19,4 C 75 % 1008,1 hPa 0,0 l/m 2 min 0 min 0,0 UV-I 239 W/m 7,7 km/h (2 Bft)
06.09.2013 09:02 21,3 C 19,4 C 74 % 1008,2 hPa 0,0 l/m 2 min 0 min 0,0 UV-I 244 W/m 12,9 km/h (3 Bft)
06.09.2013 09:06 21,5 C 19,4 C 74 % 1008,2 hPa 0,0 l/m 2 min 0 min 0,0 UV-I 251 W/m 15,4 km/h (3 Bft)
06.09.2013 09:08 21,6 C 19,4 C 73 % 1008,2 hPa 0,0 l/m 2 min 0 min 0,0 UV-I 258 W/m 20,6 km/h (4 Bft)
06.09.2013 09:10 21,7 C 20,0 C 73 % 1008,2 hPa 0,0 l/m 2 min 0 min 0,0 UV-I 262 W/m 18,0 km/h (3 Bft)
06.09.2013 09:12 21,8 C 20,0 C 72 % 1008,2 hPa 0,0 l/m 2 min 0 min 0,0 UV-I 265 W/m 10,3 km/h (2 Bft)
06.09.2013 09:14 21,9 C 20,0 C 72 % 1008,2 hPa 0,0 l/m 2 min 0 min 0,0 UV-I 272 W/m 7,7 km/h (2 Bft)
06.09.2013 09:16 22,1 C 20,0 C 72 % 1008,1 hPa 0,0 l/m 2 min 0 min 0,0 UV-I 276 W/m 12,9 km/h (3 Bft)
06.09.2013 09:18 22,2 C 20,0 C 72 % 1008,2 hPa 0,0 l/m 2 min 0 min 0,0 UV-I 281 W/m 15,4 km/h (3 Bft)
06.09.2013 09:20 22,3 C 20,0 C 71 % 1008,2 hPa 0,0 l/m 2 min 0 min 0,0 UV-I 287 W/m 10,3 km/h (2 Bft)
06.09.2013 09:22 22,4 C 20,0 C 71 % 1008,2 hPa 0,0 l/m 2 min 0 min 0,0 UV-I 290 W/m 10,3 km/h (2 Bft)
06.09.2013 09:24 22,4 C 20,6 C 71 % 1008,2 hPa 0,0 l/m 2 min 0 min 0,0 UV-I 294 W/m 12,9 km/h (3 Bft)
06.09.2013 09:26 22,6 C 20,6 C 71 % 1008,1 hPa 0,0 l/m 2 min 0 min 0,0 UV-I 299 W/m 12,9 km/h (3 Bft)
06.09.2013 09:28 22,6 C 20,6 C 71 % 1008,2 hPa 0,0 l/m 2 min 0 min 0,5 UV-I 304 W/m 10,3 km/h (2 Bft)
06.09.2013 09:30 22,7 C 20,6 C 70 % 1008,2 hPa 0,0 l/m 2 min 0 min 0,5 UV-I 308 W/m 7,7 km/h (2 Bft)
06.09.2013 09:32 22,8 C 20,6 C 70 % 1008,2 hPa 0,0 l/m 2 min 0 min 0,5 UV-I 315 W/m 12,9 km/h (3 Bft)
06.09.2013 09:34 22,9 C 21,1 C 70 % 1008,3 hPa 0,0 l/m 2 min 0 min 0,5 UV-I 318 W/m 7,7 km/h (2 Bft)
06.09.2013 09:36 22,9 C 21,1 C 70 % 1008,3 hPa 0,0 l/m 2 min 0 min 0,6 UV-I 322 W/m 10,3 km/h (2 Bft)
06.09.2013 09:38 23,1 C 21,1 C 70 % 1008,3 hPa 0,0 l/m 2 min 0 min 0,6 UV-I 329 W/m 12,9 km/h (3 Bft)
06.09.2013 09:40 23,2 C 21,1 C 69 % 1008,3 hPa 0,0 l/m 2 min 0 min 0,6 UV-I 332 W/m 18,0 km/h (3 Bft)
06.09.2013 09:42 23,2 C 21,1 C 68 % 1008,3 hPa 0,0 l/m 2 min 0 min 0,6 UV-I 336 W/m 15,4 km/h (3 Bft)
06.09.2013 09:44 23,3 C 21,1 C 69 % 1008,3 hPa 0,0 l/m 2 min 0 min 0,7 UV-I 343 W/m 12,9 km/h (3 Bft)
06.09.2013 09:46 23,4 C 21,1 C 68 % 1008,3 hPa 0,0 l/m 2 min 0 min 0,7 UV-I 346 W/m 10,3 km/h (2 Bft)
06.09.2013 09:48 23,6 C 21,1 C 68 % 1008,3 hPa 0,0 l/m 2 min 0 min 0,7 UV-I 350 W/m 15,4 km/h (3 Bft)
06.09.2013 09:50 23,7 C 21,7 C 68 % 1008,3 hPa 0,0 l/m 2 min 0 min 0,8 UV-I 355 W/m 10,3 km/h (2 Bft)
06.09.2013 09:52 23,8 C 21,7 C 68 % 1008,3 hPa 0,0 l/m 2 min 0 min 0,8 UV-I 359 W/m 18,0 km/h (3 Bft)
06.09.2013 09:54 23,9 C 21,7 C 67 % 1008,3 hPa 0,0 l/m 2 min 0 min 0,8 UV-I 362 W/m 20,6 km/h (4 Bft)
06.09.2013 09:56 23,9 C 21,7 C 67 % 1008,3 hPa 0,0 l/m 2 min 0 min 0,8 UV-I 367 W/m 10,3 km/h (2 Bft)
06.09.2013 09:58 24,0 C 21,7 C 67 % 1008,3 hPa 0,0 l/m 2 min 0 min 0,9 UV-I 371 W/m 12,9 km/h (3 Bft)
06.09.2013 10:00 24,1 C 21,7 C 67 % 1008,3 hPa 0,0 l/m 2 min 0 min 0,9 UV-I 374 W/m 10,3 km/h (2 Bft)
06.09.2013 10:02 24,2 C 21,7 C 67 % 1008,3 hPa 0,0 l/m 2 min 0 min 0,9 UV-I 380 W/m 15,4 km/h (3 Bft)
06.09.2013 10:06 24,5 C 21,7 C 65 % 1008,3 hPa 0,0 l/m 2 min 0 min 1,0 UV-I 387 W/m 10,3 km/h (2 Bft)
06.09.2013 10:08 24,6 C 22,2 C 65 % 1008,3 hPa 0,0 l/m 2 min 0 min 1,0 UV-I 392 W/m 12,9 km/h (3 Bft)
06.09.2013 10:10 24,6 C 22,2 C 64 % 1008,3 hPa 0,0 l/m 2 min 0 min 1,1 UV-I 396 W/m 18,0 km/h (3 Bft)
06.09.2013 10:12 24,7 C 22,2 C 64 % 1008,3 hPa 0,0 l/m 2 min 0 min 1,1 UV-I 397 W/m 18,0 km/h (3 Bft)
06.09.2013 10:14 24,7 C 22,2 C 65 % 1008,3 hPa 0,0 l/m 2 min 0 min 1,1 UV-I 404 W/m 15,4 km/h (3 Bft)
06.09.2013 10:16 24,9 C 22,8 C 65 % 1008,2 hPa 0,0 l/m 2 min 0 min 1,2 UV-I 410 W/m 7,7 km/h (2 Bft)
06.09.2013 10:18 25,0 C 22,8 C 65 % 1008,2 hPa 0,0 l/m 2 min 0 min 1,2 UV-I 415 W/m 2,6 km/h (1 Bft)
06.09.2013 10:20 25,1 C 22,8 C 64 % 1008,2 hPa 0,0 l/m 2 min 0 min 1,2 UV-I 417 W/m 7,7 km/h (2 Bft)
06.09.2013 10:22 25,2 C 22,8 C 64 % 1008,2 hPa 0,0 l/m 2 min 0 min 1,2 UV-I 420 W/m 18,0 km/h (3 Bft)
06.09.2013 10:24 25,2 C 22,8 C 64 % 1008,2 hPa 0,0 l/m 2 min 0 min 1,3 UV-I 425 W/m 10,3 km/h (2 Bft)
06.09.2013 10:26 25,3 C 23,3 C 64 % 1008,2 hPa 0,0 l/m 2 min 0 min 1,3 UV-I 429 W/m 10,3 km/h (2 Bft)
06.09.2013 10:28 25,5 C 23,3 C 63 % 1008,3 hPa 0,0 l/m 2 min 0 min 1,3 UV-I 432 W/m 12,9 km/h (3 Bft)
06.09.2013 10:30 25,7 C 23,3 C 63 % 1008,2 hPa 0,0 l/m 2 min 0 min 1,4 UV-I 438 W/m 5,1 km/h (1 Bft)
06.09.2013 10:32 25,8 C 23,3 C 62 % 1008,2 hPa 0,0 l/m 2 min 0 min 1,4 UV-I 443 W/m 15,4 km/h (3 Bft)
06.09.2013 10:34 25,9 C 23,3 C 62 % 1008,2 hPa 0,0 l/m 2 min 0 min 1,4 UV-I 445 W/m 18,0 km/h (3 Bft)
06.09.2013 10:36 25,9 C 23,9 C 62 % 1008,2 hPa 0,0 l/m 2 min 0 min 1,5 UV-I 452 W/m 10,3 km/h (2 Bft)
06.09.2013 10:38 25,9 C 23,9 C 62 % 1008,2 hPa 0,0 l/m 2 min 0 min 1,5 UV-I 455 W/m 15,4 km/h (3 Bft)
06.09.2013 10:40 25,9 C 23,9 C 62 % 1008,2 hPa 0,0 l/m 2 min 0 min 1,5 UV-I 459 W/m 12,9 km/h (3 Bft)
06.09.2013 10:42 26,0 C 23,9 C 62 % 1008,2 hPa 0,0 l/m 2 min 0 min 1,5 UV-I 462 W/m 15,4 km/h (3 Bft)
06.09.2013 10:44 26,0 C 24,4 C 62 % 1008,2 hPa 0,0 l/m 2 min 0 min 1,6 UV-I 466 W/m 15,4 km/h (3 Bft)
06.09.2013 10:46 26,1 C 24,4 C 62 % 1008,1 hPa 0,0 l/m 2 min 0 min 1,6 UV-I 469 W/m 12,9 km/h (3 Bft)
06.09.2013 10:48 26,2 C 24,4 C 62 % 1008,1 hPa 0,0 l/m 2 min 0 min 1,6 UV-I 475 W/m 10,3 km/h (2 Bft)
06.09.2013 10:50 26,3 C 24,4 C 62 % 1008,1 hPa 0,0 l/m 2 min 0 min 1,7 UV-I 480 W/m 12,9 km/h (3 Bft)
06.09.2013 10:52 26,3 C 24,4 C 61 % 1008,1 hPa 0,0 l/m 2 min 0 min 1,7 UV-I 483 W/m 10,3 km/h (2 Bft)
06.09.2013 10:54 26,4 C 25,0 C 61 % 1008,1 hPa 0,0 l/m 2 min 0 min 1,8 UV-I 489 W/m 7,7 km/h (2 Bft)
06.09.2013 10:56 26,5 C 25,0 C 61 % 1008,1 hPa 0,0 l/m 2 min 0 min 1,8 UV-I 492 W/m 15,4 km/h (3 Bft)
06.09.2013 10:58 26,7 C 25,0 C 60 % 1008,1 hPa 0,0 l/m 2 min 0 min 1,8 UV-I 494 W/m 10,3 km/h (2 Bft)
06.09.2013 11:00 26,7 C 25,0 C 60 % 1008,1 hPa 0,0 l/m 2 min 0 min 1,9 UV-I 499 W/m 10,3 km/h (2 Bft)
06.09.2013 11:02 26,9 C 25,0 C 60 % 1008,1 hPa 0,0 l/m 2 min 0 min 1,9 UV-I 504 W/m 12,9 km/h (3 Bft)
06.09.2013 11:06 26,9 C 25,6 C 60 % 1008,0 hPa 0,0 l/m 2 min 0 min 2,0 UV-I 510 W/m 10,3 km/h (2 Bft)
06.09.2013 11:08 27,1 C 25,6 C 60 % 1008,0 hPa 0,0 l/m 2 min 0 min 2,0 UV-I 513 W/m 7,7 km/h (2 Bft)
06.09.2013 11:10 27,3 C 25,6 C 60 % 1007,9 hPa 0,0 l/m 2 min 0 min 2,0 UV-I 517 W/m 12,9 km/h (3 Bft)
06.09.2013 11:12 27,4 C 25,6 C 59 % 1008,0 hPa 0,0 l/m 2 min 0 min 2,1 UV-I 526 W/m 12,9 km/h (3 Bft)
06.09.2013 11:14 27,5 C 25,6 C 58 % 1007,9 hPa 0,0 l/m 2 min 0 min 2,1 UV-I 524 W/m 10,3 km/h (2 Bft)
06.09.2013 11:16 27,6 C 25,6 C 58 % 1007,9 hPa 0,0 l/m 2 min 0 min 2,1 UV-I 527 W/m 15,4 km/h (3 Bft)
06.09.2013 11:18 27,5 C 25,6 C 58 % 1007,9 hPa 0,0 l/m 2 min 0 min 2,2 UV-I 531 W/m 2,6 km/h (1 Bft)
06.09.2013 11:20 27,6 C 25,6 C 58 % 1007,9 hPa 0,0 l/m 2 min 0 min 2,2 UV-I 533 W/m 2,6 km/h (1 Bft)
06.09.2013 11:22 27,7 C 26,1 C 59 % 1007,9 hPa 0,0 l/m 2 min 0 min 2,2 UV-I 536 W/m 10,3 km/h (2 Bft)
06.09.2013 11:24 27,8 C 26,1 C 57 % 1007,9 hPa 0,0 l/m 2 min 0 min 2,3 UV-I 540 W/m 5,1 km/h (1 Bft)
06.09.2013 11:26 27,9 C 26,1 C 58 % 1007,8 hPa 0,0 l/m 2 min 0 min 2,3 UV-I 541 W/m 10,3 km/h (2 Bft)
06.09.2013 11:28 28,0 C 26,1 C 57 % 1007,9 hPa 0,0 l/m 2 min 0 min 2,3 UV-I 548 W/m 18,0 km/h (3 Bft)
06.09.2013 11:30 27,9 C 26,1 C 57 % 1007,8 hPa 0,0 l/m 2 min 0 min 2,4 UV-I 552 W/m 15,4 km/h (3 Bft)
06.09.2013 11:32 27,8 C 26,1 C 58 % 1007,8 hPa 0,0 l/m 2 min 0 min 2,4 UV-I 555 W/m 5,1 km/h (1 Bft)
06.09.2013 11:34 27,8 C 26,7 C 57 % 1007,8 hPa 0,0 l/m 2 min 0 min 2,4 UV-I 557 W/m 10,3 km/h (2 Bft)
06.09.2013 11:36 28,1 C 26,7 C 57 % 1007,8 hPa 0,0 l/m 2 min 0 min 2,4 UV-I 559 W/m 7,7 km/h (2 Bft)
06.09.2013 11:38 28,2 C 26,7 C 57 % 1007,8 hPa 0,0 l/m 2 min 0 min 2,5 UV-I 563 W/m 12,9 km/h (3 Bft)
06.09.2013 11:40 28,3 C 26,7 C 56 % 1007,7 hPa 0,0 l/m 2 min 0 min 2,5 UV-I 564 W/m 7,7 km/h (2 Bft)
06.09.2013 11:42 28,2 C 26,7 C 56 % 1007,8 hPa 0,0 l/m 2 min 0 min 2,6 UV-I 568 W/m 10,3 km/h (2 Bft)
06.09.2013 11:44 28,4 C 26,7 C 56 % 1007,7 hPa 0,0 l/m 2 min 0 min 2,6 UV-I 571 W/m 15,4 km/h (3 Bft)
06.09.2013 11:46 28,6 C 27,2 C 56 % 1007,8 hPa 0,0 l/m 2 min 0 min 2,6 UV-I 575 W/m 12,9 km/h (3 Bft)
06.09.2013 11:48 28,5 C 27,2 C 56 % 1007,8 hPa 0,0 l/m 2 min 0 min 2,7 UV-I 578 W/m 2,6 km/h (1 Bft)
06.09.2013 11:50 28,6 C 27,2 C 56 % 1007,6 hPa 0,0 l/m 2 min 0 min 2,7 UV-I 582 W/m 12,9 km/h (3 Bft)
06.09.2013 11:52 28,6 C 27,2 C 56 % 1007,7 hPa 0,0 l/m 2 min 0 min 2,7 UV-I 585 W/m 15,4 km/h (3 Bft)
06.09.2013 11:54 28,7 C 27,2 C 55 % 1007,6 hPa 0,0 l/m 2 min 0 min 2,7 UV-I 585 W/m 12,9 km/h (3 Bft)
06.09.2013 11:56 28,8 C 27,2 C 55 % 1007,7 hPa 0,0 l/m 2 min 0 min 2,7 UV-I 587 W/m 18,0 km/h (3 Bft)
06.09.2013 11:58 28,8 C 27,2 C 55 % 1007,7 hPa 0,0 l/m 2 min 0 min 2,8 UV-I 589 W/m 15,4 km/h (3 Bft)
06.09.2013 12:00 28,9 C 27,2 C 55 % 1007,7 hPa 0,0 l/m 2 min 0 min 2,8 UV-I 591 W/m 12,9 km/h (3 Bft)
06.09.2013 12:02 29,0 C 27,8 C 55 % 1007,6 hPa 0,0 l/m 2 min 0 min 2,8 UV-I 592 W/m 2,6 km/h (1 Bft)
06.09.2013 12:06 29,2 C 27,8 C 55 % 1007,6 hPa 0,0 l/m 2 min 0 min 2,9 UV-I 599 W/m 10,3 km/h (2 Bft)
06.09.2013 12:08 29,4 C 28,3 C 54 % 1007,6 hPa 0,0 l/m 2 min 0 min 2,9 UV-I 601 W/m 20,6 km/h (4 Bft)
06.09.2013 12:10 29,4 C 28,3 C 55 % 1007,6 hPa 0,0 l/m 2 min 0 min 2,9 UV-I 606 W/m 10,3 km/h (2 Bft)
06.09.2013 12:12 29,4 C 28,3 C 55 % 1007,5 hPa 0,0 l/m 2 min 0 min 3,0 UV-I 610 W/m 10,3 km/h (2 Bft)
06.09.2013 12:14 29,4 C 28,3 C 54 % 1007,6 hPa 0,0 l/m 2 min 0 min 3,0 UV-I 610 W/m 7,7 km/h (2 Bft)
06.09.2013 12:16 29,6 C 28,3 C 54 % 1007,6 hPa 0,0 l/m 2 min 0 min 3,0 UV-I 610 W/m 18,0 km/h (3 Bft)
06.09.2013 12:18 29,6 C 28,3 C 54 % 1007,5 hPa 0,0 l/m 2 min 0 min 3,0 UV-I 612 W/m 5,1 km/h (1 Bft)
06.09.2013 12:20 29,7 C 28,3 C 53 % 1007,6 hPa 0,0 l/m 2 min 0 min 3,0 UV-I 613 W/m 12,9 km/h (3 Bft)
06.09.2013 12:22 29,5 C 28,3 C 53 % 1007,6 hPa 0,0 l/m 2 min 0 min 3,0 UV-I 617 W/m 12,9 km/h (3 Bft)
06.09.2013 12:24 29,5 C 28,3 C 54 % 1007,5 hPa 0,0 l/m 2 min 0 min 3,1 UV-I 619 W/m 12,9 km/h (3 Bft)
06.09.2013 12:26 29,6 C 28,3 C 54 % 1007,5 hPa 0,0 l/m 2 min 0 min 3,1 UV-I 621 W/m 10,3 km/h (2 Bft)
06.09.2013 12:28 29,6 C 27,8 C 53 % 1007,5 hPa 0,0 l/m 2 min 0 min 3,1 UV-I 624 W/m 12,9 km/h (3 Bft)
06.09.2013 12:30 29,7 C 28,3 C 53 % 1007,5 hPa 0,0 l/m 2 min 0 min 3,1 UV-I 628 W/m 15,4 km/h (3 Bft)
06.09.2013 12:32 29,8 C 28,3 C 54 % 1007,5 hPa 0,0 l/m 2 min 0 min 3,2 UV-I 629 W/m 10,3 km/h (2 Bft)
06.09.2013 12:34 29,8 C 28,3 C 53 % 1007,5 hPa 0,0 l/m 2 min 0 min 3,2 UV-I 633 W/m 12,9 km/h (3 Bft)
06.09.2013 12:36 30,0 C 28,9 C 53 % 1007,4 hPa 0,0 l/m 2 min 0 min 3,2 UV-I 635 W/m 18,0 km/h (3 Bft)
06.09.2013 12:38 30,2 C 28,9 C 53 % 1007,5 hPa 0,0 l/m 2 min 0 min 3,2 UV-I 635 W/m 18,0 km/h (3 Bft)
06.09.2013 12:40 30,1 C 28,9 C 52 % 1007,4 hPa 0,0 l/m 2 min 0 min 3,2 UV-I 638 W/m 10,3 km/h (2 Bft)
06.09.2013 12:42 30,1 C 28,9 C 52 % 1007,4 hPa 0,0 l/m 2 min 0 min 3,2 UV-I 640 W/m 12,9 km/h (3 Bft)
06.09.2013 12:44 30,1 C 28,9 C 52 % 1007,4 hPa 0,0 l/m 2 min 0 min 3,2 UV-I 638 W/m 12,9 km/h (3 Bft)
06.09.2013 12:46 30,2 C 28,9 C 52 % 1007,4 hPa 0,0 l/m 2 min 0 min 3,0 UV-I 643 W/m 7,7 km/h (2 Bft)
06.09.2013 12:48 30,2 C 28,9 C 53 % 1007,3 hPa 0,0 l/m 2 min 0 min 2,8 UV-I 642 W/m 10,3 km/h (2 Bft)
06.09.2013 12:50 30,3 C 29,4 C 52 % 1007,3 hPa 0,0 l/m 2 min 0 min 2,6 UV-I 643 W/m 10,3 km/h (2 Bft)
06.09.2013 12:52 30,3 C 29,4 C 51 % 1007,3 hPa 0,0 l/m 2 min 0 min 2,3 UV-I 647 W/m 0,0 km/h (0 Bft)
06.09.2013 12:54 30,2 C 29,4 C 52 % 1007,3 hPa 0,0 l/m 2 min 0 min 2,1 UV-I 642 W/m 10,3 km/h (2 Bft)
06.09.2013 12:56 30,4 C 29,4 C 52 % 1007,3 hPa 0,0 l/m 2 min 0 min 2,0 UV-I 643 W/m 7,7 km/h (2 Bft)
06.09.2013 12:58 30,7 C 29,4 C 52 % 1007,3 hPa 0,0 l/m 2 min 0 min 1,9 UV-I 649 W/m 2,6 km/h (1 Bft)
06.09.2013 13:00 30,7 C 30,0 C 50 % 1007,3 hPa 0,0 l/m 2 min 0 min 1,8 UV-I 650 W/m 2,6 km/h (1 Bft)
06.09.2013 13:02 30,7 C 30,0 C 50 % 1007,2 hPa 0,0 l/m 2 min 0 min 1,8 UV-I 649 W/m 10,3 km/h (2 Bft)
06.09.2013 13:06 30,9 C 30,6 C 51 % 1007,3 hPa 0,0 l/m 2 min 0 min 1,9 UV-I 652 W/m 12,9 km/h (3 Bft)
06.09.2013 13:08 30,8 C 30,0 C 51 % 1007,3 hPa 0,0 l/m 2 min 0 min 1,9 UV-I 652 W/m 7,7 km/h (2 Bft)
06.09.2013 13:10 30,9 C 30,0 C 51 % 1007,2 hPa 0,0 l/m 2 min 0 min 1,9 UV-I 656 W/m 10,3 km/h (2 Bft)
06.09.2013 13:12 31,1 C 30,0 C 49 % 1007,2 hPa 0,0 l/m 2 min 0 min 1,9 UV-I 657 W/m 15,4 km/h (3 Bft)
06.09.2013 13:14 31,1 C 30,0 C 49 % 1007,2 hPa 0,0 l/m 2 min 0 min 1,9 UV-I 656 W/m 12,9 km/h (3 Bft)
06.09.2013 13:16 31,0 C 29,4 C 49 % 1007,2 hPa 0,0 l/m 2 min 0 min 1,9 UV-I 656 W/m 12,9 km/h (3 Bft)
06.09.2013 13:18 31,1 C 29,4 C 50 % 1007,2 hPa 0,0 l/m 2 min 0 min 1,9 UV-I 659 W/m 7,7 km/h (2 Bft)
06.09.2013 13:20 31,2 C 29,4 C 50 % 1007,1 hPa 0,0 l/m 2 min 0 min 1,9 UV-I 591 W/m 0,0 km/h (0 Bft)
06.09.2013 13:22 31,4 C 29,4 C 49 % 1007,0 hPa 0,0 l/m 2 min 0 min 1,9 UV-I 668 W/m 10,3 km/h (2 Bft)
06.09.2013 13:24 31,4 C 29,4 C 48 % 1007,0 hPa 0,0 l/m 2 min 0 min 1,9 UV-I 659 W/m 18,0 km/h (3 Bft)
06.09.2013 13:26 31,4 C 29,4 C 49 % 1007,0 hPa 0,0 l/m 2 min 0 min 1,9 UV-I 654 W/m 2,6 km/h (1 Bft)
06.09.2013 13:28 31,6 C 29,4 C 49 % 1007,0 hPa 0,0 l/m 2 min 0 min 1,9 UV-I 654 W/m 12,9 km/h (3 Bft)
06.09.2013 13:30 31,6 C 30,0 C 48 % 1007,1 hPa 0,0 l/m 2 min 0 min 1,9 UV-I 656 W/m 15,4 km/h (3 Bft)
06.09.2013 13:32 31,6 C 30,0 C 48 % 1007,0 hPa 0,0 l/m 2 min 0 min 1,9 UV-I 659 W/m 12,9 km/h (3 Bft)
06.09.2013 13:34 31,6 C 30,0 C 49 % 1007,0 hPa 0,0 l/m 2 min 0 min 2,0 UV-I 659 W/m 10,3 km/h (2 Bft)
06.09.2013 13:36 31,8 C 30,0 C 47 % 1007,0 hPa 0,0 l/m 2 min 0 min 2,1 UV-I 656 W/m 12,9 km/h (3 Bft)
06.09.2013 13:38 31,7 C 30,0 C 47 % 1007,0 hPa 0,0 l/m 2 min 0 min 2,3 UV-I 652 W/m 2,6 km/h (1 Bft)
06.09.2013 13:40 31,9 C 30,0 C 47 % 1007,1 hPa 0,0 l/m 2 min 0 min 2,6 UV-I 657 W/m 15,4 km/h (3 Bft)
06.09.2013 13:42 32,0 C 30,0 C 46 % 1007,0 hPa 0,0 l/m 2 min 0 min 2,9 UV-I 659 W/m 12,9 km/h (3 Bft)
06.09.2013 13:44 31,9 C 30,0 C 46 % 1007,0 hPa 0,0 l/m 2 min 0 min 3,1 UV-I 656 W/m 12,9 km/h (3 Bft)
06.09.2013 13:46 32,0 C 30,0 C 47 % 1007,0 hPa 0,0 l/m 2 min 0 min 3,3 UV-I 656 W/m 12,9 km/h (3 Bft)
06.09.2013 13:48 32,1 C 30,0 C 47 % 1007,0 hPa 0,0 l/m 2 min 0 min 3,4 UV-I 654 W/m 15,4 km/h (3 Bft)
06.09.2013 13:50 32,0 C 30,0 C 46 % 1006,9 hPa 0,0 l/m 2 min 0 min 3,4 UV-I 650 W/m 5,1 km/h (1 Bft)
06.09.2013 13:52 31,9 C 30,0 C 45 % 1006,9 hPa 0,0 l/m 2 min 0 min 3,4 UV-I 650 W/m 5,1 km/h (1 Bft)
06.09.2013 13:54 32,1 C 30,0 C 46 % 1006,9 hPa 0,0 l/m 2 min 0 min 3,4 UV-I 652 W/m 2,6 km/h (1 Bft)
06.09.2013 13:56 32,2 C 30,0 C 47 % 1006,9 hPa 0,0 l/m 2 min 0 min 3,4 UV-I 647 W/m 10,3 km/h (2 Bft)
06.09.2013 13:58 32,3 C 30,0 C 46 % 1006,9 hPa 0,0 l/m 2 min 0 min 3,3 UV-I 642 W/m 7,7 km/h (2 Bft)
06.09.2013 14:00 32,3 C 30,0 C 48 % 1006,9 hPa 0,0 l/m 2 min 0 min 3,4 UV-I 643 W/m 2,6 km/h (1 Bft)
06.09.2013 14:02 32,4 C 30,6 C 46 % 1006,9 hPa 0,0 l/m 2 min 0 min 3,4 UV-I 650 W/m 12,9 km/h (3 Bft)
06.09.2013 14:06 32,5 C 30,6 C 45 % 1006,9 hPa 0,0 l/m 2 min 0 min 3,4 UV-I 647 W/m 15,4 km/h (3 Bft)
06.09.2013 14:08 32,4 C 30,6 C 46 % 1006,8 hPa 0,0 l/m 2 min 0 min 3,3 UV-I 640 W/m 2,6 km/h (1 Bft)
06.09.2013 14:10 32,5 C 30,6 C 47 % 1006,8 hPa 0,0 l/m 2 min 0 min 3,3 UV-I 642 W/m 2,6 km/h (1 Bft)
06.09.2013 14:12 32,4 C 30,6 C 45 % 1006,8 hPa 0,0 l/m 2 min 0 min 3,4 UV-I 647 W/m 7,7 km/h (2 Bft)
06.09.2013 14:14 32,3 C 30,6 C 45 % 1006,7 hPa 0,0 l/m 2 min 0 min 3,4 UV-I 654 W/m 0,0 km/h (0 Bft)
06.09.2013 14:16 32,4 C 30,6 C 45 % 1006,7 hPa 0,0 l/m 2 min 0 min 3,4 UV-I 650 W/m 2,6 km/h (1 Bft)
06.09.2013 14:18 32,2 C 30,6 C 46 % 1006,7 hPa 0,0 l/m 2 min 0 min 3,4 UV-I 647 W/m 2,6 km/h (1 Bft)
06.09.2013 14:20 32,4 C 30,6 C 46 % 1006,7 hPa 0,0 l/m 2 min 0 min 3,4 UV-I 647 W/m 5,1 km/h (1 Bft)
06.09.2013 14:22 32,6 C 30,6 C 45 % 1006,7 hPa 0,0 l/m 2 min 0 min 3,4 UV-I 649 W/m 12,9 km/h (3 Bft)
06.09.2013 14:24 32,8 C 31,1 C 45 % 1006,7 hPa 0,0 l/m 2 min 0 min 3,3 UV-I 654 W/m 10,3 km/h (2 Bft)
06.09.2013 14:26 32,8 C 31,1 C 44 % 1006,7 hPa 0,0 l/m 2 min 0 min 3,3 UV-I 650 W/m 18,0 km/h (3 Bft)
06.09.2013 14:28 32,7 C 30,6 C 44 % 1006,7 hPa 0,0 l/m 2 min 0 min 3,3 UV-I 649 W/m 10,3 km/h (2 Bft)
06.09.2013 14:30 32,7 C 31,1 C 44 % 1006,7 hPa 0,0 l/m 2 min 0 min 3,2 UV-I 666 W/m 15,4 km/h (3 Bft)
06.09.2013 14:32 32,7 C 31,1 C 45 % 1006,6 hPa 0,0 l/m 2 min 0 min 3,2 UV-I 673 W/m 7,7 km/h (2 Bft)
06.09.2013 14:34 32,9 C 31,1 C 45 % 1006,6 hPa 0,0 l/m 2 min 0 min 2,8 UV-I 664 W/m 7,7 km/h (2 Bft)
06.09.2013 14:36 32,9 C 30,6 C 43 % 1006,6 hPa 0,0 l/m 0 min 0 min 1,9 UV-I 151 W/m 7,7 km/h (2 Bft)
06.09.2013 14:38 32,6 C 30,0 C 44 % 1006,6 hPa 0,0 l/m 0 min 0 min 1,8 UV-I 169 W/m 10,3 km/h (2 Bft)
06.09.2013 14:40 32,2 C 30,0 C 45 % 1006,6 hPa 0,0 l/m 0 min 0 min 1,8 UV-I 186 W/m 2,6 km/h (1 Bft)
06.09.2013 14:42 31,8 C 30,0 C 45 % 1006,6 hPa 0,0 l/m 0 min 0 min 2,0 UV-I 279 W/m 12,9 km/h (3 Bft)
06.09.2013 14:44 31,7 C 30,0 C 45 % 1006,5 hPa 0,0 l/m 0 min 0 min 2,1 UV-I 232 W/m 12,9 km/h (3 Bft)
06.09.2013 14:46 31,8 C 30,0 C 45 % 1006,5 hPa 0,0 l/m 0 min 0 min 1,9 UV-I 232 W/m 10,3 km/h (2 Bft)
06.09.2013 14:48 31,9 C 30,0 C 46 % 1006,4 hPa 0,0 l/m 0 min 0 min 2,2 UV-I 278 W/m 10,3 km/h (2 Bft)
06.09.2013 14:50 31,9 C 30,6 C 46 % 1006,5 hPa 0,0 l/m 0 min 0 min 1,7 UV-I 227 W/m 2,6 km/h (1 Bft)
06.09.2013 14:52 31,8 C 30,6 C 46 % 1006,5 hPa 0,0 l/m 0 min 0 min 1,7 UV-I 285 W/m 2,6 km/h (1 Bft)
06.09.2013 14:54 31,8 C 30,6 C 45 % 1006,5 hPa 0,0 l/m 0 min 0 min 1,8 UV-I 285 W/m 0,0 km/h (0 Bft)
06.09.2013 14:56 31,9 C 30,6 C 45 % 1006,5 hPa 0,0 l/m 0 min 0 min 1,5 UV-I 213 W/m 12,9 km/h (3 Bft)
06.09.2013 14:58 32,0 C 30,6 C 45 % 1006,4 hPa 0,0 l/m 0 min 0 min 1,4 UV-I 200 W/m 15,4 km/h (3 Bft)
06.09.2013 15:00 31,9 C 30,6 C 45 % 1006,4 hPa 0,0 l/m 0 min 0 min 1,3 UV-I 192 W/m 15,4 km/h (3 Bft)
06.09.2013 15:02 31,8 C 30,6 C 45 % 1006,4 hPa 0,0 l/m 0 min 0 min 1,2 UV-I 202 W/m 10,3 km/h (2 Bft)
06.09.2013 15:06 31,6 C 30,0 C 45 % 1006,3 hPa 0,0 l/m 0 min 0 min 0,9 UV-I 139 W/m 12,9 km/h (3 Bft)
06.09.2013 15:08 31,5 C 30,0 C 46 % 1006,4 hPa 0,0 l/m 0 min 0 min 0,6 UV-I 111 W/m 7,7 km/h (2 Bft)
06.09.2013 15:10 31,4 C 30,0 C 47 % 1006,4 hPa 0,0 l/m 0 min 0 min 0,0 UV-I 90 W/m 7,7 km/h (2 Bft)
06.09.2013 15:12 31,2 C 29,4 C 47 % 1006,4 hPa 0,0 l/m 0 min 0 min 0,0 UV-I 79 W/m 2,6 km/h (1 Bft)
06.09.2013 15:14 31,1 C 29,4 C 47 % 1006,4 hPa 0,0 l/m 0 min 2 min 0,0 UV-I 83 W/m 2,6 km/h (1 Bft)
06.09.2013 15:16 30,9 C 27,8 C 51 % 1006,4 hPa 0,0 l/m 0 min 2 min 0,0 UV-I 90 W/m 12,9 km/h (3 Bft)
06.09.2013 15:18 30,6 C 25,0 C 52 % 1006,5 hPa 0,0 l/m 0 min 2 min 0,5 UV-I 134 W/m 12,9 km/h (3 Bft)
06.09.2013 15:20 30,0 C 24,4 C 55 % 1006,5 hPa 0,0 l/m 0 min 2 min 0,8 UV-I 165 W/m 7,7 km/h (2 Bft)
06.09.2013 15:22 29,6 C 25,6 C 56 % 1006,5 hPa 0,0 l/m 0 min 2 min 1,4 UV-I 220 W/m 10,3 km/h (2 Bft)
06.09.2013 15:24 29,6 C 26,7 C 56 % 1006,5 hPa 0,0 l/m 2 min 0 min 1,1 UV-I 473 W/m 10,3 km/h (2 Bft)
06.09.2013 15:26 29,6 C 27,2 C 54 % 1006,5 hPa 0,0 l/m 0 min 0 min 1,3 UV-I 227 W/m 2,6 km/h (1 Bft)
06.09.2013 15:28 29,7 C 27,2 C 54 % 1006,5 hPa 0,0 l/m 0 min 0 min 1,3 UV-I 195 W/m 0,0 km/h (0 Bft)
06.09.2013 15:30 29,8 C 27,8 C 55 % 1006,4 hPa 0,0 l/m 0 min 0 min 1,0 UV-I 151 W/m 5,1 km/h (1 Bft)
06.09.2013 15:32 29,7 C 27,2 C 52 % 1006,5 hPa 0,0 l/m 0 min 0 min 1,1 UV-I 151 W/m 2,6 km/h (1 Bft)
06.09.2013 15:34 29,8 C 27,8 C 52 % 1006,5 hPa 0,0 l/m 0 min 0 min 1,0 UV-I 151 W/m 0,0 km/h (0 Bft)
06.09.2013 15:36 29,8 C 27,8 C 53 % 1006,6 hPa 0,0 l/m 0 min 0 min 1,1 UV-I 193 W/m 0,0 km/h (0 Bft)
06.09.2013 15:38 29,8 C 27,8 C 52 % 1006,8 hPa 0,0 l/m 2 min 0 min 1,4 UV-I 371 W/m 7,7 km/h (2 Bft)
06.09.2013 15:40 29,9 C 27,8 C 52 % 1007,0 hPa 0,0 l/m 0 min 0 min 1,1 UV-I 316 W/m 12,9 km/h (3 Bft)
06.09.2013 15:42 29,9 C 28,3 C 53 % 1007,2 hPa 0,0 l/m 2 min 0 min 0,9 UV-I 339 W/m 7,7 km/h (2 Bft)
06.09.2013 15:44 29,6 C 27,8 C 55 % 1007,3 hPa 0,0 l/m 2 min 0 min 1,1 UV-I 364 W/m 18,0 km/h (3 Bft)
06.09.2013 15:46 28,8 C 27,2 C 55 % 1007,2 hPa 0,0 l/m 2 min 0 min 1,2 UV-I 360 W/m 25,7 km/h (4 Bft)
06.09.2013 15:48 28,2 C 27,2 C 58 % 1007,1 hPa 0,0 l/m 0 min 0 min 1,2 UV-I 308 W/m 20,6 km/h (4 Bft)
06.09.2013 15:50 27,9 C 27,2 C 59 % 1007,2 hPa 0,0 l/m 0 min 0 min 1,2 UV-I 237 W/m 12,9 km/h (3 Bft)
06.09.2013 15:52 27,8 C 26,7 C 59 % 1007,4 hPa 0,0 l/m 0 min 0 min 1,2 UV-I 304 W/m 20,6 km/h (4 Bft)
06.09.2013 15:54 27,6 C 26,7 C 58 % 1007,5 hPa 0,0 l/m 0 min 0 min 1,1 UV-I 229 W/m 20,6 km/h (4 Bft)
06.09.2013 15:56 27,4 C 26,7 C 59 % 1007,5 hPa 0,0 l/m 0 min 0 min 1,0 UV-I 202 W/m 15,4 km/h (3 Bft)
06.09.2013 15:58 27,2 C 26,1 C 58 % 1007,6 hPa 0,0 l/m 0 min 0 min 1,0 UV-I 197 W/m 23,2 km/h (4 Bft)
06.09.2013 16:00 27,0 C 26,1 C 58 % 1007,7 hPa 0,0 l/m 0 min 0 min 1,0 UV-I 221 W/m 15,4 km/h (3 Bft)
06.09.2013 16:02 26,9 C 26,1 C 59 % 1007,7 hPa 0,0 l/m 0 min 0 min 1,1 UV-I 278 W/m 15,4 km/h (3 Bft)
06.09.2013 16:06 27,0 C 26,7 C 59 % 1007,7 hPa 0,0 l/m 2 min 0 min 1,3 UV-I 339 W/m 7,7 km/h (2 Bft)
06.09.2013 16:08 27,1 C 26,1 C 56 % 1007,6 hPa 0,0 l/m 0 min 0 min 1,2 UV-I 285 W/m 7,7 km/h (2 Bft)
06.09.2013 16:10 27,0 C 26,1 C 56 % 1007,5 hPa 0,0 l/m 0 min 0 min 1,1 UV-I 243 W/m 7,7 km/h (2 Bft)
06.09.2013 16:12 26,9 C 26,1 C 56 % 1007,6 hPa 0,0 l/m 0 min 0 min 1,2 UV-I 251 W/m 20,6 km/h (4 Bft)
06.09.2013 16:14 26,8 C 26,1 C 57 % 1007,6 hPa 0,0 l/m 2 min 0 min 1,2 UV-I 352 W/m 15,4 km/h (3 Bft)
06.09.2013 16:16 26,7 C 26,1 C 59 % 1007,7 hPa 0,0 l/m 0 min 0 min 0,9 UV-I 181 W/m 12,9 km/h (3 Bft)
06.09.2013 16:18 26,6 C 25,6 C 59 % 1007,7 hPa 0,0 l/m 0 min 0 min 1,1 UV-I 183 W/m 12,9 km/h (3 Bft)
06.09.2013 16:20 26,4 C 25,6 C 60 % 1007,8 hPa 0,0 l/m 0 min 0 min 1,0 UV-I 283 W/m 12,9 km/h (3 Bft)
06.09.2013 16:22 26,3 C 25,6 C 61 % 1007,8 hPa 0,0 l/m 2 min 0 min 1,3 UV-I 380 W/m 18,0 km/h (3 Bft)
06.09.2013 16:24 26,3 C 25,6 C 61 % 1007,8 hPa 0,0 l/m 2 min 0 min 1,4 UV-I 497 W/m 5,1 km/h (1 Bft)
06.09.2013 16:26 26,4 C 26,1 C 58 % 1007,8 hPa 0,0 l/m 2 min 0 min 1,5 UV-I 566 W/m 10,3 km/h (2 Bft)
06.09.2013 16:28 26,6 C 26,1 C 58 % 1007,9 hPa 0,0 l/m 2 min 0 min 1,5 UV-I 570 W/m 12,9 km/h (3 Bft)
06.09.2013 16:30 26,7 C 26,7 C 58 % 1007,9 hPa 0,0 l/m 2 min 0 min 1,5 UV-I 585 W/m 7,7 km/h (2 Bft)
06.09.2013 16:32 27,0 C 27,2 C 57 % 1008,0 hPa 0,0 l/m 2 min 0 min 1,6 UV-I 485 W/m 10,3 km/h (2 Bft)
06.09.2013 16:34 27,2 C 27,2 C 58 % 1008,0 hPa 0,0 l/m 2 min 0 min 1,6 UV-I 559 W/m 2,6 km/h (1 Bft)
06.09.2013 16:36 27,1 C 27,2 C 58 % 1008,0 hPa 0,0 l/m 2 min 0 min 1,5 UV-I 543 W/m 10,3 km/h (2 Bft)
06.09.2013 16:38 26,9 C 26,7 C 60 % 1007,9 hPa 0,0 l/m 2 min 0 min 1,5 UV-I 533 W/m 5,1 km/h (1 Bft)
06.09.2013 16:40 26,8 C 26,7 C 60 % 1007,9 hPa 0,0 l/m 2 min 0 min 1,4 UV-I 496 W/m 12,9 km/h (3 Bft)
06.09.2013 16:42 26,6 C 25,6 C 59 % 1007,9 hPa 0,0 l/m 2 min 0 min 1,4 UV-I 478 W/m 15,4 km/h (3 Bft)
06.09.2013 16:44 26,3 C 25,6 C 60 % 1007,8 hPa 0,0 l/m 2 min 0 min 1,3 UV-I 464 W/m 15,4 km/h (3 Bft)
06.09.2013 16:46 26,2 C 25,6 C 61 % 1008,0 hPa 0,0 l/m 2 min 0 min 1,2 UV-I 381 W/m 10,3 km/h (2 Bft)
06.09.2013 16:48 26,1 C 25,6 C 61 % 1007,9 hPa 0,0 l/m 2 min 0 min 1,0 UV-I 376 W/m 12,9 km/h (3 Bft)
06.09.2013 16:50 26,0 C 25,0 C 62 % 1007,9 hPa 0,0 l/m 0 min 0 min 0,8 UV-I 153 W/m 12,9 km/h (3 Bft)
06.09.2013 16:52 26,0 C 25,0 C 63 % 1007,9 hPa 0,0 l/m 0 min 0 min 0,6 UV-I 121 W/m 5,1 km/h (1 Bft)
06.09.2013 16:54 26,1 C 25,0 C 62 % 1008,0 hPa 0,0 l/m 0 min 0 min 0,6 UV-I 142 W/m 10,3 km/h (2 Bft)
06.09.2013 16:56 26,0 C 25,0 C 62 % 1007,8 hPa 0,0 l/m 0 min 0 min 0,9 UV-I 160 W/m 2,6 km/h (1 Bft)
06.09.2013 16:58 26,0 C 25,6 C 62 % 1007,8 hPa 0,0 l/m 0 min 0 min 0,7 UV-I 169 W/m 7,7 km/h (2 Bft)
06.09.2013 17:00 25,9 C 25,6 C 63 % 1007,8 hPa 0,0 l/m 0 min 0 min 0,6 UV-I 169 W/m 10,3 km/h (2 Bft)
06.09.2013 17:02 26,0 C 25,6 C 63 % 1007,9 hPa 0,0 l/m 0 min 0 min 0,6 UV-I 206 W/m 10,3 km/h (2 Bft)
06.09.2013 17:05 26,0 C 25,6 C 63 % 1007,6 hPa 0,0 l/m 0 min 0 min 0,0 UV-I 141 W/m 2,6 km/h (1 Bft)
06.09.2013 17:06 26,0 C 25,6 C 63 % 1007,6 hPa 0,0 l/m 0 min 0 min 0,0 UV-I 141 W/m 2,6 km/h (1 Bft)
06.09.2013 17:08 25,9 C 25,6 C 64 % 1007,7 hPa 0,0 l/m 0 min 0 min 0,0 UV-I 151 W/m 0,0 km/h (0 Bft)
06.09.2013 17:10 25,9 C 25,6 C 64 % 1007,7 hPa 0,0 l/m 0 min 0 min 0,0 UV-I 142 W/m 10,3 km/h (2 Bft)
06.09.2013 17:12 25,9 C 25,6 C 64 % 1007,7 hPa 0,0 l/m 0 min 0 min 0,0 UV-I 127 W/m 0,0 km/h (0 Bft)
06.09.2013 17:14 25,9 C 25,6 C 65 % 1007,7 hPa 0,0 l/m 0 min 0 min 0,0 UV-I 114 W/m 2,6 km/h (1 Bft)
06.09.2013 17:16 25,9 C 25,0 C 65 % 1007,8 hPa 0,0 l/m 0 min 0 min 0,0 UV-I 120 W/m 2,6 km/h (1 Bft)
06.09.2013 17:18 25,9 C 25,0 C 64 % 1007,8 hPa 0,0 l/m 0 min 0 min 0,0 UV-I 121 W/m 12,9 km/h (3 Bft)
06.09.2013 17:20 25,8 C 25,0 C 64 % 1007,8 hPa 0,0 l/m 0 min 0 min 0,0 UV-I 116 W/m 12,9 km/h (3 Bft)
06.09.2013 17:22 25,8 C 25,0 C 65 % 1007,8 hPa 0,0 l/m 0 min 0 min 0,0 UV-I 116 W/m 2,6 km/h (1 Bft)
06.09.2013 17:24 25,8 C 25,0 C 65 % 1007,7 hPa 0,0 l/m 0 min 0 min 0,0 UV-I 121 W/m 10,3 km/h (2 Bft)
06.09.2013 17:26 25,8 C 25,0 C 65 % 1007,8 hPa 0,0 l/m 0 min 0 min 0,0 UV-I 134 W/m 2,6 km/h (1 Bft)
06.09.2013 17:28 25,8 C 25,0 C 65 % 1007,9 hPa 0,0 l/m 0 min 0 min 0,0 UV-I 134 W/m 7,7 km/h (2 Bft)
06.09.2013 17:30 25,8 C 25,0 C 65 % 1007,9 hPa 0,0 l/m 0 min 0 min 0,0 UV-I 148 W/m 7,7 km/h (2 Bft)
06.09.2013 17:32 25,8 C 25,0 C 66 % 1007,9 hPa 0,0 l/m 0 min 0 min 0,0 UV-I 109 W/m 7,7 km/h (2 Bft)
06.09.2013 17:34 25,8 C 25,0 C 66 % 1007,9 hPa 0,0 l/m 0 min 0 min 0,0 UV-I 98 W/m 0,0 km/h (0 Bft)
06.09.2013 17:36 25,8 C 25,0 C 66 % 1007,9 hPa 0,0 l/m 0 min 0 min 0,0 UV-I 104 W/m 7,7 km/h (2 Bft)
06.09.2013 17:38 25,7 C 25,0 C 66 % 1007,9 hPa 0,0 l/m 0 min 0 min 0,0 UV-I 104 W/m 2,6 km/h (1 Bft)
06.09.2013 17:40 25,7 C 25,0 C 66 % 1007,9 hPa 0,0 l/m 0 min 0 min 0,0 UV-I 98 W/m 5,1 km/h (1 Bft)
06.09.2013 17:42 25,7 C 25,0 C 66 % 1007,9 hPa 0,0 l/m 0 min 0 min 0,0 UV-I 93 W/m 0,0 km/h (0 Bft)
06.09.2013 17:44 25,7 C 25,0 C 66 % 1008,0 hPa 0,0 l/m 0 min 0 min 0,0 UV-I 95 W/m 2,6 km/h (1 Bft)
06.09.2013 17:46 25,7 C 25,0 C 66 % 1008,0 hPa 0,0 l/m 0 min 0 min 0,0 UV-I 98 W/m 2,6 km/h (1 Bft)
06.09.2013 17:48 25,7 C 25,0 C 67 % 1008,0 hPa 0,0 l/m 0 min 0 min 0,0 UV-I 102 W/m 0,0 km/h (0 Bft)
06.09.2013 17:50 25,7 C 25,0 C 66 % 1008,0 hPa 0,0 l/m 0 min 0 min 0,0 UV-I 120 W/m 2,6 km/h (1 Bft)
06.09.2013 17:52 25,7 C 25,0 C 67 % 1008,1 hPa 0,0 l/m 0 min 0 min 0,0 UV-I 130 W/m 0,0 km/h (0 Bft)
06.09.2013 17:54 25,7 C 25,0 C 67 % 1008,1 hPa 0,0 l/m 0 min 0 min 0,0 UV-I 137 W/m 0,0 km/h (0 Bft)
06.09.2013 17:56 25,7 C 25,0 C 67 % 1008,1 hPa 0,0 l/m 0 min 0 min 0,0 UV-I 135 W/m 0,0 km/h (0 Bft)
06.09.2013 17:58 25,7 C 25,0 C 67 % 1008,1 hPa 0,0 l/m 0 min 0 min 0,0 UV-I 134 W/m 0,0 km/h (0 Bft)
06.09.2013 18:00 25,7 C 25,0 C 66 % 1008,0 hPa 0,0 l/m 0 min 0 min 0,0 UV-I 134 W/m 0,0 km/h (0 Bft)
06.09.2013 18:02 25,7 C 25,0 C 66 % 1007,9 hPa 0,0 l/m 0 min 0 min 0,0 UV-I 144 W/m 12,9 km/h (3 Bft)
06.09.2013 18:06 25,7 C 25,0 C 67 % 1007,9 hPa 0,0 l/m 0 min 0 min 0,0 UV-I 128 W/m 0,0 km/h (0 Bft)
06.09.2013 18:08 25,7 C 25,0 C 67 % 1008,0 hPa 0,0 l/m 0 min 0 min 0,0 UV-I 116 W/m 5,1 km/h (1 Bft)
06.09.2013 18:10 25,8 C 25,0 C 67 % 1008,0 hPa 0,0 l/m 0 min 0 min 0,0 UV-I 104 W/m 0,0 km/h (0 Bft)
06.09.2013 18:12 25,7 C 25,0 C 67 % 1008,1 hPa 0,0 l/m 0 min 0 min 0,0 UV-I 102 W/m 0,0 km/h (0 Bft)
06.09.2013 18:14 25,7 C 24,4 C 67 % 1008,1 hPa 0,0 l/m 0 min 0 min 0,0 UV-I 104 W/m 0,0 km/h (0 Bft)
06.09.2013 18:16 25,7 C 24,4 C 66 % 1008,1 hPa 0,0 l/m 0 min 0 min 0,0 UV-I 98 W/m 5,1 km/h (1 Bft)
06.09.2013 18:18 25,7 C 24,4 C 66 % 1008,1 hPa 0,0 l/m 0 min 0 min 0,0 UV-I 90 W/m 10,3 km/h (2 Bft)
06.09.2013 18:20 25,6 C 24,4 C 66 % 1008,2 hPa 0,0 l/m 0 min 0 min 0,0 UV-I 77 W/m 0,0 km/h (0 Bft)
06.09.2013 18:22 25,6 C 24,4 C 67 % 1008,2 hPa 0,0 l/m 0 min 0 min 0,0 UV-I 69 W/m 0,0 km/h (0 Bft)
06.09.2013 18:24 25,6 C 24,4 C 67 % 1008,2 hPa 0,0 l/m 0 min 0 min 0,0 UV-I 63 W/m 0,0 km/h (0 Bft)
06.09.2013 18:26 25,6 C 24,4 C 67 % 1008,2 hPa 0,0 l/m 0 min 0 min 0,0 UV-I 62 W/m 0,0 km/h (0 Bft)
06.09.2013 18:28 25,6 C 24,4 C 66 % 1008,3 hPa 0,0 l/m 0 min 0 min 0,0 UV-I 63 W/m 0,0 km/h (0 Bft)
06.09.2013 18:30 25,6 C 24,4 C 67 % 1008,2 hPa 0,0 l/m 0 min 0 min 0,0 UV-I 60 W/m 2,6 km/h (1 Bft)
06.09.2013 18:32 25,6 C 24,4 C 67 % 1008,2 hPa 0,0 l/m 0 min 0 min 0,0 UV-I 49 W/m 0,0 km/h (0 Bft)
06.09.2013 18:34 25,6 C 24,4 C 67 % 1008,3 hPa 0,0 l/m 0 min 0 min 0,0 UV-I 63 W/m 0,0 km/h (0 Bft)
06.09.2013 18:36 25,5 C 23,9 C 67 % 1008,3 hPa 0,0 l/m 0 min 0 min 0,0 UV-I 37 W/m 0,0 km/h (0 Bft)
06.09.2013 18:38 25,4 C 23,9 C 67 % 1008,5 hPa 0,0 l/m 0 min 0 min 0,0 UV-I 33 W/m 0,0 km/h (0 Bft)
06.09.2013 18:40 25,4 C 23,9 C 67 % 1008,5 hPa 0,0 l/m 0 min 0 min 0,0 UV-I 32 W/m 0,0 km/h (0 Bft)
06.09.2013 18:42 25,4 C 23,9 C 67 % 1008,5 hPa 0,0 l/m 0 min 0 min 0,0 UV-I 30 W/m 0,0 km/h (0 Bft)
06.09.2013 18:44 25,4 C 23,9 C 68 % 1008,6 hPa 0,0 l/m 0 min 0 min 0,0 UV-I 25 W/m 0,0 km/h (0 Bft)
06.09.2013 18:46 25,3 C 23,9 C 68 % 1008,7 hPa 0,0 l/m 0 min 0 min 0,0 UV-I 23 W/m 0,0 km/h (0 Bft)
06.09.2013 18:48 25,3 C 23,9 C 68 % 1008,8 hPa 0,0 l/m 0 min 0 min 0,0 UV-I 23 W/m 0,0 km/h (0 Bft)
06.09.2013 18:50 25,2 C 23,9 C 68 % 1008,8 hPa 0,0 l/m 0 min 0 min 0,0 UV-I 26 W/m 0,0 km/h (0 Bft)
06.09.2013 18:52 25,2 C 23,9 C 68 % 1008,9 hPa 0,0 l/m 0 min 0 min 0,0 UV-I 32 W/m 5,1 km/h (1 Bft)
06.09.2013 18:54 25,2 C 23,9 C 68 % 1008,8 hPa 0,0 l/m 0 min 0 min 0,0 UV-I 30 W/m 10,3 km/h (2 Bft)
06.09.2013 18:56 25,1 C 23,9 C 68 % 1008,9 hPa 0,0 l/m 0 min 0 min 0,0 UV-I 33 W/m 0,0 km/h (0 Bft)
06.09.2013 18:58 25,1 C 23,3 C 69 % 1008,9 hPa 0,0 l/m 0 min 0 min 0,0 UV-I 30 W/m 0,0 km/h (0 Bft)
06.09.2013 19:00 25,1 C 23,3 C 69 % 1008,9 hPa 0,0 l/m 0 min 0 min 0,0 UV-I 26 W/m 0,0 km/h (0 Bft)
06.09.2013 19:02 25,1 C 23,3 C 68 % 1008,9 hPa 0,0 l/m 0 min 0 min 0,0 UV-I 26 W/m 12,9 km/h (3 Bft)
06.09.2013 19:06 25,1 C 23,3 C 68 % 1008,9 hPa 0,0 l/m 0 min 0 min 0,0 UV-I 25 W/m 12,9 km/h (3 Bft)
06.09.2013 19:08 25,1 C 23,3 C 69 % 1008,9 hPa 0,0 l/m 0 min 0 min 0,0 UV-I 23 W/m 10,3 km/h (2 Bft)
06.09.2013 19:10 25,1 C 23,3 C 69 % 1009,0 hPa 0,0 l/m 0 min 0 min 0,0 UV-I 23 W/m 0,0 km/h (0 Bft)
06.09.2013 19:12 25,0 C 23,3 C 69 % 1009,0 hPa 0,0 l/m 0 min 0 min 0,0 UV-I 18 W/m 0,0 km/h (0 Bft)
06.09.2013 19:14 24,9 C 23,3 C 70 % 1009,1 hPa 0,0 l/m 0 min 0 min 0,0 UV-I 14 W/m 7,7 km/h (2 Bft)
06.09.2013 19:16 24,9 C 22,8 C 70 % 1009,1 hPa 0,0 l/m 0 min 0 min 0,0 UV-I 14 W/m 7,7 km/h (2 Bft)
06.09.2013 19:18 24,9 C 22,2 C 71 % 1009,0 hPa 0,0 l/m 0 min 2 min 0,0 UV-I 12 W/m 0,0 km/h (0 Bft)
06.09.2013 19:20 24,8 C 22,8 C 71 % 1008,9 hPa 0,0 l/m 0 min 2 min 0,0 UV-I 12 W/m 0,0 km/h (0 Bft)
06.09.2013 19:22 24,8 C 22,8 C 72 % 1009,2 hPa 0,0 l/m 0 min 2 min 0,0 UV-I 14 W/m 0,0 km/h (0 Bft)
06.09.2013 19:24 24,7 C 22,2 C 73 % 1009,6 hPa 0,0 l/m 0 min 2 min 0,0 UV-I 16 W/m 0,0 km/h (0 Bft)
06.09.2013 19:26 24,6 C 21,1 C 74 % 1009,7 hPa 0,2 l/m 0 min 2 min 0,0 UV-I 18 W/m 0,0 km/h (0 Bft)
06.09.2013 19:28 24,3 C 20,6 C 78 % 1009,7 hPa 0,6 l/m 0 min 2 min 0,0 UV-I 18 W/m 0,0 km/h (0 Bft)
06.09.2013 19:30 23,9 C 20,0 C 82 % 1009,7 hPa 0,4 l/m 0 min 2 min 0,0 UV-I 25 W/m 0,0 km/h (0 Bft)
06.09.2013 19:32 23,4 C 20,0 C 83 % 1009,7 hPa 0,0 l/m 0 min 2 min 0,0 UV-I 30 W/m 0,0 km/h (0 Bft)
06.09.2013 19:34 23,1 C 20,0 C 85 % 1009,4 hPa 0,0 l/m 0 min 2 min 0,0 UV-I 33 W/m 0,0 km/h (0 Bft)
06.09.2013 19:36 22,8 C 20,0 C 87 % 1009,3 hPa 0,0 l/m 0 min 2 min 0,0 UV-I 33 W/m 0,0 km/h (0 Bft)
06.09.2013 19:38 22,6 C 20,0 C 89 % 1009,3 hPa 0,0 l/m 0 min 2 min 0,0 UV-I 30 W/m 0,0 km/h (0 Bft)
06.09.2013 19:40 22,4 C 20,0 C 89 % 1009,5 hPa 0,0 l/m 0 min 0 min 0,0 UV-I 26 W/m 0,0 km/h (0 Bft)
06.09.2013 19:42 22,2 C 20,0 C 90 % 1009,7 hPa 0,0 l/m 0 min 2 min 0,0 UV-I 21 W/m 0,0 km/h (0 Bft)
06.09.2013 19:44 22,1 C 20,0 C 91 % 1009,8 hPa 0,0 l/m 0 min 2 min 0,0 UV-I 19 W/m 0,0 km/h (0 Bft)
06.09.2013 19:46 22,0 C 20,0 C 91 % 1009,8 hPa 0,0 l/m 0 min 2 min 0,0 UV-I 18 W/m 0,0 km/h (0 Bft)
06.09.2013 19:48 21,9 C 19,4 C 92 % 1009,7 hPa 0,2 l/m 0 min 0 min 0,0 UV-I 14 W/m 0,0 km/h (0 Bft)
06.09.2013 19:50 21,8 C 19,4 C 92 % 1009,7 hPa 0,0 l/m 0 min 0 min 0,0 UV-I 14 W/m 0,0 km/h (0 Bft)
06.09.2013 19:52 21,7 C 19,4 C 92 % 1009,7 hPa 0,0 l/m 0 min 0 min 0,0 UV-I 12 W/m 0,0 km/h (0 Bft)
06.09.2013 19:54 21,7 C 19,4 C 92 % 1009,8 hPa 0,0 l/m 0 min 0 min 0,0 UV-I 12 W/m 0,0 km/h (0 Bft)
06.09.2013 19:56 21,7 C 19,4 C 93 % 1009,9 hPa 0,0 l/m 0 min 0 min 0,0 UV-I 11 W/m 0,0 km/h (0 Bft)
06.09.2013 19:58 21,6 C 19,4 C 92 % 1009,9 hPa 0,0 l/m 0 min 0 min 0,0 UV-I 9 W/m 0,0 km/h (0 Bft)
06.09.2013 20:00 21,4 C 19,4 C 93 % 1010,0 hPa 0,0 l/m 0 min 0 min 0,0 UV-I 9 W/m 0,0 km/h (0 Bft)
06.09.2013 20:02 21,3 C 18,9 C 93 % 1010,1 hPa 0,0 l/m 0 min 0 min 0,0 UV-I 9 W/m 0,0 km/h (0 Bft)
06.09.2013 20:06 21,2 C 18,9 C 93 % 1009,9 hPa 0,0 l/m 0 min 0 min 0,0 UV-I 7 W/m 0,0 km/h (0 Bft)
06.09.2013 20:08 21,1 C 18,9 C 94 % 1010,0 hPa 0,0 l/m 0 min 0 min 0,0 UV-I 7 W/m 0,0 km/h (0 Bft)
06.09.2013 20:10 21,1 C 18,9 C 94 % 1010,0 hPa 0,0 l/m 0 min 0 min 0,0 UV-I 7 W/m 0,0 km/h (0 Bft)
06.09.2013 20:12 21,0 C 18,9 C 94 % 1010,0 hPa 0,0 l/m 0 min 0 min 0,0 UV-I 5 W/m 0,0 km/h (0 Bft)
06.09.2013 20:14 21,0 C 18,9 C 95 % 1010,1 hPa 0,0 l/m 0 min 0 min 0,0 UV-I 5 W/m 0,0 km/h (0 Bft)
06.09.2013 20:16 20,9 C 18,9 C 94 % 1010,1 hPa 0,0 l/m 0 min 0 min 0,0 UV-I 0 W/m 0,0 km/h (0 Bft)
06.09.2013 20:18 20,9 C 18,9 C 94 % 1010,1 hPa 0,0 l/m 0 min 0 min 0,0 UV-I 0 W/m 0,0 km/h (0 Bft)
06.09.2013 20:20 20,9 C 18,9 C 95 % 1010,1 hPa 0,0 l/m 0 min 0 min 0,0 UV-I 0 W/m 0,0 km/h (0 Bft)
06.09.2013 20:22 20,8 C 18,9 C 95 % 1010,1 hPa 0,0 l/m 0 min 0 min 0,0 UV-I 0 W/m 0,0 km/h (0 Bft)
06.09.2013 20:24 20,8 C 18,9 C 95 % 1010,1 hPa 0,0 l/m 0 min 0 min 0,0 UV-I 0 W/m 0,0 km/h (0 Bft)
06.09.2013 20:26 20,8 C 18,9 C 95 % 1010,1 hPa 0,0 l/m 0 min 0 min 0,0 UV-I 0 W/m 0,0 km/h (0 Bft)
06.09.2013 20:28 20,8 C 18,9 C 95 % 1010,1 hPa 0,0 l/m 0 min 0 min 0,0 UV-I 0 W/m 0,0 km/h (0 Bft)
06.09.2013 20:30 20,8 C 18,9 C 95 % 1010,1 hPa 0,0 l/m 0 min 0 min 0,0 UV-I 0 W/m 0,0 km/h (0 Bft)
06.09.2013 20:32 20,8 C 18,9 C 95 % 1010,2 hPa 0,0 l/m 0 min 0 min 0,0 UV-I 0 W/m 0,0 km/h (0 Bft)
06.09.2013 20:34 20,7 C 18,9 C 96 % 1010,2 hPa 0,0 l/m 0 min 0 min 0,0 UV-I 0 W/m 0,0 km/h (0 Bft)
06.09.2013 20:36 20,7 C 18,9 C 96 % 1010,3 hPa 0,0 l/m 0 min 0 min 0,0 UV-I 0 W/m 0,0 km/h (0 Bft)
06.09.2013 20:38 20,7 C 18,9 C 96 % 1010,3 hPa 0,0 l/m 0 min 0 min 0,0 UV-I 0 W/m 0,0 km/h (0 Bft)
06.09.2013 20:40 20,7 C 18,9 C 96 % 1010,3 hPa 0,0 l/m 0 min 0 min 0,0 UV-I 0 W/m 0,0 km/h (0 Bft)
06.09.2013 20:42 20,7 C 18,9 C 96 % 1010,3 hPa 0,0 l/m 0 min 0 min 0,0 UV-I 0 W/m 0,0 km/h (0 Bft)
06.09.2013 20:44 20,7 C 18,9 C 96 % 1010,4 hPa 0,0 l/m 0 min 0 min 0,0 UV-I 0 W/m 0,0 km/h (0 Bft)
06.09.2013 20:46 20,7 C 18,9 C 96 % 1010,4 hPa 0,0 l/m 0 min 0 min 0,0 UV-I 0 W/m 0,0 km/h (0 Bft)
06.09.2013 20:48 20,7 C 18,3 C 96 % 1010,4 hPa 0,0 l/m 0 min 0 min 0,0 UV-I 0 W/m 0,0 km/h (0 Bft)
06.09.2013 20:50 20,6 C 18,3 C 96 % 1010,5 hPa 0,0 l/m 0 min 0 min 0,0 UV-I 0 W/m 0,0 km/h (0 Bft)
06.09.2013 20:52 20,6 C 18,3 C 96 % 1010,5 hPa 0,0 l/m 0 min 0 min 0,0 UV-I 0 W/m 0,0 km/h (0 Bft)
06.09.2013 20:54 20,5 C 18,3 C 96 % 1010,5 hPa 0,0 l/m 0 min 0 min 0,0 UV-I 0 W/m 0,0 km/h (0 Bft)
06.09.2013 20:56 20,4 C 18,3 C 96 % 1010,5 hPa 0,0 l/m 0 min 0 min 0,0 UV-I 0 W/m 0,0 km/h (0 Bft)
06.09.2013 20:58 20,4 C 18,3 C 96 % 1010,5 hPa 0,0 l/m 0 min 0 min 0,0 UV-I 0 W/m 0,0 km/h (0 Bft)
06.09.2013 21:00 20,4 C 18,3 C 96 % 1010,6 hPa 0,0 l/m 0 min 0 min 0,0 UV-I 0 W/m 0,0 km/h (0 Bft)
06.09.2013 21:02 20,4 C 18,3 C 96 % 1010,6 hPa 0,0 l/m 0 min 0 min 0,0 UV-I 0 W/m 0,0 km/h (0 Bft)
06.09.2013 21:06 20,3 C 18,3 C 97 % 1010,6 hPa 0,0 l/m 0 min 0 min 0,0 UV-I 0 W/m 0,0 km/h (0 Bft)
06.09.2013 21:08 20,3 C 18,3 C 97 % 1010,6 hPa 0,0 l/m 0 min 0 min 0,0 UV-I 0 W/m 0,0 km/h (0 Bft)
06.09.2013 21:10 20,2 C 18,3 C 96 % 1010,6 hPa 0,0 l/m 0 min 0 min 0,0 UV-I 0 W/m 0,0 km/h (0 Bft)
06.09.2013 21:12 20,3 C 18,3 C 96 % 1010,7 hPa 0,0 l/m 0 min 0 min 0,0 UV-I 0 W/m 0,0 km/h (0 Bft)
06.09.2013 21:14 20,3 C 18,3 C 97 % 1010,7 hPa 0,0 l/m 0 min 0 min 0,0 UV-I 0 W/m 0,0 km/h (0 Bft)
06.09.2013 21:16 20,2 C 18,3 C 97 % 1010,7 hPa 0,0 l/m 0 min 0 min 0,0 UV-I 0 W/m 0,0 km/h (0 Bft)
06.09.2013 21:18 20,2 C 18,3 C 97 % 1010,7 hPa 0,0 l/m 0 min 0 min 0,0 UV-I 0 W/m 0,0 km/h (0 Bft)
06.09.2013 21:20 20,1 C 18,3 C 97 % 1010,7 hPa 0,0 l/m 0 min 0 min 0,0 UV-I 0 W/m 0,0 km/h (0 Bft)
06.09.2013 21:22 20,1 C 18,3 C 97 % 1010,8 hPa 0,0 l/m 0 min 0 min 0,0 UV-I 0 W/m 0,0 km/h (0 Bft)
06.09.2013 21:24 20,1 C 18,3 C 97 % 1010,7 hPa 0,0 l/m 0 min 0 min 0,0 UV-I 0 W/m 0,0 km/h (0 Bft)
06.09.2013 21:26 20,2 C 18,3 C 97 % 1010,8 hPa 0,0 l/m 0 min 0 min 0,0 UV-I 0 W/m 0,0 km/h (0 Bft)
06.09.2013 21:28 20,2 C 18,3 C 97 % 1010,9 hPa 0,0 l/m 0 min 0 min 0,0 UV-I 0 W/m 0,0 km/h (0 Bft)
06.09.2013 21:30 20,2 C 18,3 C 97 % 1010,8 hPa 0,0 l/m 0 min 0 min 0,0 UV-I 0 W/m 0,0 km/h (0 Bft)
06.09.2013 21:32 20,2 C 18,3 C 97 % 1010,9 hPa 0,0 l/m 0 min 0 min 0,0 UV-I 0 W/m 0,0 km/h (0 Bft)
06.09.2013 21:34 20,1 C 18,3 C 97 % 1010,8 hPa 0,0 l/m 0 min 0 min 0,0 UV-I 0 W/m 0,0 km/h (0 Bft)
06.09.2013 21:36 20,1 C 18,3 C 97 % 1010,9 hPa 0,0 l/m 0 min 0 min 0,0 UV-I 0 W/m 0,0 km/h (0 Bft)
06.09.2013 21:38 20,1 C 18,3 C 97 % 1010,9 hPa 0,0 l/m 0 min 0 min 0,0 UV-I 0 W/m 0,0 km/h (0 Bft)
06.09.2013 21:40 20,0 C 18,3 C 97 % 1010,9 hPa 0,0 l/m 0 min 0 min 0,0 UV-I 0 W/m 0,0 km/h (0 Bft)
06.09.2013 21:42 20,0 C 18,3 C 97 % 1011,0 hPa 0,0 l/m 0 min 0 min 0,0 UV-I 0 W/m 0,0 km/h (0 Bft)
06.09.2013 21:44 19,9 C 18,3 C 97 % 1011,0 hPa 0,0 l/m 0 min 0 min 0,0 UV-I 0 W/m 0,0 km/h (0 Bft)
06.09.2013 21:46 19,9 C 18,3 C 97 % 1011,0 hPa 0,0 l/m 0 min 0 min 0,0 UV-I 0 W/m 0,0 km/h (0 Bft)
06.09.2013 21:48 19,9 C 17,8 C 97 % 1011,0 hPa 0,0 l/m 0 min 0 min 0,0 UV-I 0 W/m 0,0 km/h (0 Bft)
06.09.2013 21:50 19,9 C 17,8 C 97 % 1011,1 hPa 0,0 l/m 0 min 0 min 0,0 UV-I 0 W/m 0,0 km/h (0 Bft)
06.09.2013 21:52 19,8 C 17,8 C 97 % 1011,1 hPa 0,0 l/m 0 min 0 min 0,0 UV-I 0 W/m 0,0 km/h (0 Bft)
06.09.2013 21:54 19,8 C 17,8 C 97 % 1011,2 hPa 0,0 l/m 0 min 0 min 0,0 UV-I 0 W/m 0,0 km/h (0 Bft)
06.09.2013 21:56 19,8 C 17,8 C 97 % 1011,1 hPa 0,0 l/m 0 min 0 min 0,0 UV-I 0 W/m 0,0 km/h (0 Bft)
06.09.2013 21:58 19,7 C 17,8 C 97 % 1011,2 hPa 0,0 l/m 0 min 0 min 0,0 UV-I 0 W/m 0,0 km/h (0 Bft)
06.09.2013 22:00 19,7 C 17,8 C 97 % 1011,2 hPa 0,0 l/m 0 min 0 min 0,0 UV-I 0 W/m 0,0 km/h (0 Bft)
06.09.2013 22:02 19,6 C 17,8 C 97 % 1011,2 hPa 0,0 l/m 0 min 0 min 0,0 UV-I 0 W/m 0,0 km/h (0 Bft)
06.09.2013 22:06 19,6 C 17,8 C 97 % 1011,3 hPa 0,0 l/m 0 min 0 min 0,0 UV-I 0 W/m 0,0 km/h (0 Bft)
06.09.2013 22:08 19,5 C 17,8 C 97 % 1011,3 hPa 0,0 l/m 0 min 0 min 0,0 UV-I 0 W/m 0,0 km/h (0 Bft)
06.09.2013 22:10 19,5 C 17,8 C 97 % 1011,3 hPa 0,0 l/m 0 min 0 min 0,0 UV-I 0 W/m 0,0 km/h (0 Bft)
06.09.2013 22:12 19,4 C 17,8 C 97 % 1011,3 hPa 0,0 l/m 0 min 0 min 0,0 UV-I 0 W/m 0,0 km/h (0 Bft)
06.09.2013 22:14 19,4 C 17,8 C 97 % 1011,3 hPa 0,0 l/m 0 min 0 min 0,0 UV-I 0 W/m 0,0 km/h (0 Bft)
06.09.2013 22:16 19,3 C 17,2 C 97 % 1011,4 hPa 0,0 l/m 0 min 0 min 0,0 UV-I 0 W/m 0,0 km/h (0 Bft)
06.09.2013 22:18 19,2 C 17,2 C 97 % 1011,3 hPa 0,0 l/m 0 min 0 min 0,0 UV-I 0 W/m 0,0 km/h (0 Bft)
06.09.2013 22:20 19,2 C 17,2 C 97 % 1011,4 hPa 0,0 l/m 0 min 0 min 0,0 UV-I 0 W/m 0,0 km/h (0 Bft)
06.09.2013 22:22 19,2 C 17,2 C 97 % 1011,3 hPa 0,0 l/m 0 min 0 min 0,0 UV-I 0 W/m 0,0 km/h (0 Bft)
06.09.2013 22:24 19,2 C 17,2 C 98 % 1011,4 hPa 0,0 l/m 0 min 0 min 0,0 UV-I 0 W/m 0,0 km/h (0 Bft)
06.09.2013 22:26 19,2 C 17,2 C 97 % 1011,4 hPa 0,0 l/m 0 min 0 min 0,0 UV-I 0 W/m 0,0 km/h (0 Bft)
06.09.2013 22:28 19,2 C 17,2 C 97 % 1011,4 hPa 0,0 l/m 0 min 0 min 0,0 UV-I 0 W/m 0,0 km/h (0 Bft)
06.09.2013 22:30 19,2 C 17,2 C 97 % 1011,4 hPa 0,0 l/m 0 min 0 min 0,0 UV-I 0 W/m 0,0 km/h (0 Bft)
06.09.2013 22:32 19,1 C 17,2 C 97 % 1011,4 hPa 0,0 l/m 0 min 0 min 0,0 UV-I 0 W/m 0,0 km/h (0 Bft)
06.09.2013 22:34 19,1 C 17,2 C 97 % 1011,4 hPa 0,0 l/m 0 min 0 min 0,0 UV-I 0 W/m 0,0 km/h (0 Bft)
06.09.2013 22:36 19,1 C 17,2 C 97 % 1011,5 hPa 0,0 l/m 0 min 0 min 0,0 UV-I 0 W/m 0,0 km/h (0 Bft)
06.09.2013 22:38 19,0 C 17,2 C 97 % 1011,5 hPa 0,0 l/m 0 min 0 min 0,0 UV-I 0 W/m 0,0 km/h (0 Bft)
06.09.2013 22:40 19,0 C 17,2 C 97 % 1011,5 hPa 0,0 l/m 0 min 0 min 0,0 UV-I 0 W/m 0,0 km/h (0 Bft)
06.09.2013 22:42 19,0 C 17,2 C 97 % 1011,5 hPa 0,0 l/m 0 min 0 min 0,0 UV-I 0 W/m 0,0 km/h (0 Bft)
06.09.2013 22:44 19,0 C 17,2 C 97 % 1011,5 hPa 0,0 l/m 0 min 0 min 0,0 UV-I 0 W/m 0,0 km/h (0 Bft)
06.09.2013 22:46 19,1 C 17,2 C 97 % 1011,5 hPa 0,0 l/m 0 min 0 min 0,0 UV-I 0 W/m 0,0 km/h (0 Bft)
06.09.2013 22:48 19,0 C 17,2 C 97 % 1011,5 hPa 0,0 l/m 0 min 0 min 0,0 UV-I 0 W/m 0,0 km/h (0 Bft)
06.09.2013 22:50 19,0 C 17,2 C 97 % 1011,5 hPa 0,0 l/m 0 min 0 min 0,0 UV-I 0 W/m 0,0 km/h (0 Bft)
06.09.2013 22:52 19,1 C 17,2 C 97 % 1011,5 hPa 0,0 l/m 0 min 0 min 0,0 UV-I 0 W/m 0,0 km/h (0 Bft)
06.09.2013 22:54 19,1 C 17,2 C 97 % 1011,5 hPa 0,0 l/m 0 min 0 min 0,0 UV-I 0 W/m 0,0 km/h (0 Bft)
06.09.2013 22:56 19,1 C 17,2 C 97 % 1011,5 hPa 0,0 l/m 0 min 0 min 0,0 UV-I 0 W/m 0,0 km/h (0 Bft)
06.09.2013 22:58 19,0 C 17,2 C 97 % 1011,6 hPa 0,0 l/m 0 min 0 min 0,0 UV-I 0 W/m 0,0 km/h (0 Bft)
06.09.2013 23:00 19,0 C 17,2 C 98 % 1011,5 hPa 0,0 l/m 0 min 0 min 0,0 UV-I 0 W/m 0,0 km/h (0 Bft)
06.09.2013 23:02 19,0 C 17,2 C 98 % 1011,6 hPa 0,0 l/m 0 min 0 min 0,0 UV-I 0 W/m 0,0 km/h (0 Bft)
06.09.2013 23:06 18,9 C 17,2 C 98 % 1011,5 hPa 0,0 l/m 0 min 0 min 0,0 UV-I 0 W/m 0,0 km/h (0 Bft)
06.09.2013 23:08 18,9 C 17,2 C 98 % 1011,6 hPa 0,0 l/m 0 min 0 min 0,0 UV-I 0 W/m 0,0 km/h (0 Bft)
06.09.2013 23:10 18,9 C 16,7 C 98 % 1011,6 hPa 0,0 l/m 0 min 0 min 0,0 UV-I 0 W/m 0,0 km/h (0 Bft)
06.09.2013 23:12 18,9 C 17,2 C 98 % 1011,6 hPa 0,0 l/m 0 min 0 min 0,0 UV-I 0 W/m 0,0 km/h (0 Bft)
06.09.2013 23:14 18,9 C 17,2 C 98 % 1011,6 hPa 0,0 l/m 0 min 0 min 0,0 UV-I 0 W/m 0,0 km/h (0 Bft)
06.09.2013 23:16 18,8 C 17,2 C 98 % 1011,7 hPa 0,0 l/m 0 min 0 min 0,0 UV-I 0 W/m 0,0 km/h (0 Bft)
06.09.2013 23:18 18,8 C 16,7 C 98 % 1011,7 hPa 0,0 l/m 0 min 0 min 0,0 UV-I 0 W/m 0,0 km/h (0 Bft)
06.09.2013 23:20 18,8 C 16,7 C 98 % 1011,7 hPa 0,0 l/m 0 min 0 min 0,0 UV-I 0 W/m 0,0 km/h (0 Bft)
06.09.2013 23:22 18,7 C 16,7 C 98 % 1011,8 hPa 0,0 l/m 0 min 0 min 0,0 UV-I 0 W/m 0,0 km/h (0 Bft)
06.09.2013 23:24 18,7 C 16,7 C 98 % 1011,7 hPa 0,0 l/m 0 min 0 min 0,0 UV-I 0 W/m 0,0 km/h (0 Bft)
06.09.2013 23:26 18,6 C 16,7 C 98 % 1011,8 hPa 0,0 l/m 0 min 0 min 0,0 UV-I 0 W/m 0,0 km/h (0 Bft)
06.09.2013 23:28 18,6 C 16,7 C 98 % 1011,9 hPa 0,0 l/m 0 min 0 min 0,0 UV-I 0 W/m 0,0 km/h (0 Bft)
06.09.2013 23:30 18,6 C 16,7 C 98 % 1011,9 hPa 0,0 l/m 0 min 0 min 0,0 UV-I 0 W/m 0,0 km/h (0 Bft)
06.09.2013 23:32 18,5 C 16,7 C 98 % 1011,9 hPa 0,0 l/m 0 min 0 min 0,0 UV-I 0 W/m 0,0 km/h (0 Bft)
06.09.2013 23:34 18,4 C 16,7 C 98 % 1011,8 hPa 0,0 l/m 0 min 0 min 0,0 UV-I 0 W/m 0,0 km/h (0 Bft)
06.09.2013 23:36 18,4 C 16,7 C 98 % 1011,8 hPa 0,0 l/m 0 min 0 min 0,0 UV-I 0 W/m 0,0 km/h (0 Bft)
06.09.2013 23:38 18,4 C 16,7 C 98 % 1011,9 hPa 0,0 l/m 0 min 0 min 0,0 UV-I 0 W/m 0,0 km/h (0 Bft)
06.09.2013 23:40 18,3 C 16,7 C 98 % 1011,9 hPa 0,0 l/m 0 min 0 min 0,0 UV-I 0 W/m 0,0 km/h (0 Bft)
06.09.2013 23:42 18,3 C 16,7 C 98 % 1011,9 hPa 0,0 l/m 0 min 0 min 0,0 UV-I 0 W/m 0,0 km/h (0 Bft)
06.09.2013 23:44 18,4 C 16,7 C 98 % 1011,9 hPa 0,0 l/m 0 min 0 min 0,0 UV-I 0 W/m 0,0 km/h (0 Bft)
06.09.2013 23:46 18,4 C 16,7 C 98 % 1011,8 hPa 0,0 l/m 0 min 0 min 0,0 UV-I 0 W/m 0,0 km/h (0 Bft)
06.09.2013 23:48 18,4 C 16,7 C 98 % 1011,8 hPa 0,0 l/m 0 min 0 min 0,0 UV-I 0 W/m 0,0 km/h (0 Bft)
06.09.2013 23:50 18,4 C 16,7 C 98 % 1011,8 hPa 0,0 l/m 0 min 0 min 0,0 UV-I 0 W/m 0,0 km/h (0 Bft)
06.09.2013 23:52 18,4 C 16,7 C 98 % 1011,8 hPa 0,0 l/m 0 min 0 min 0,0 UV-I 0 W/m 0,0 km/h (0 Bft)
06.09.2013 23:54 18,4 C 16,7 C 98 % 1011,9 hPa 0,0 l/m 0 min 0 min 0,0 UV-I 0 W/m 0,0 km/h (0 Bft)
06.09.2013 23:56 18,4 C 16,7 C 98 % 1011,9 hPa 0,0 l/m 0 min 0 min 0,0 UV-I 0 W/m 0,0 km/h (0 Bft)
06.09.2013 23:58 18,3 C 16,1 C 98 % 1011,9 hPa 0,0 l/m 0 min 0 min 0,0 UV-I 0 W/m 0,0 km/h (0 Bft)
_ Min-Zeit 07:06 06:56 14:36 15:06 - - - - - 00:02
Minimum _ 18,3 C 16,1 C 43 % 1006,3 hPa - - - - - 0,0 km/h (0 Bft)
_ Max-Zeit 14:34 14:24 22:24 23:28 19:28 08:30 15:14 13:48 14:32 15:46
Maximum _ 32,9 C 31,1 C 98 % 1011,9 hPa 0,6 l/m 2 min 2 min 3,4 UV-I 673 W/m 25,7 km/h
S-SW (4 Bft)
Durchschnitt _ 23,3 C 21,6 C 73 % 1008,6 hPa #1,4 l/m #6:36 h #38 min. 1,9 UV-I 297 W/m 5,7 km/h (1 Bft)
© 2013 W. Hausmann